Time,TemperatureF,DewpointF,PressureIn,WindDirection,WindDirectionDegrees,WindSpeedMPH,WindSpeedGustMPH,Humidity,HourlyPrecipIn,Conditions,Clouds,dailyrainin,SoftwareType,DateUTC
2013-04-04 00:01:00,49.2,32.3,29.90,ENE,78,0.0,0.0,52,0.00,,,0.07,Wunderground v.1.15,2013-04-04 05:01:00,
2013-04-04 00:02:00,49.2,32.3,29.90,North,5,0.0,0.0,52,0.00,,,0.07,Wunderground v.1.15,2013-04-04 05:02:00,
2013-04-04 00:06:00,49.2,32.3,29.90,NE,43,0.0,0.0,52,0.00,,,0.07,Wunderground v.1.15,2013-04-04 05:06:00,
2013-04-04 00:09:00,49.2,32.8,29.89,NW,309,0.0,1.0,53,0.00,,,0.00,Wunderground v.1.15,2013-04-04 05:09:00,
2013-04-04 00:11:00,49.2,32.3,29.89,NW,309,0.0,1.0,52,0.00,,,0.00,Wunderground v.1.15,2013-04-04 05:11:00,
2013-04-04 00:12:00,49.2,32.3,29.89,NW,309,0.0,1.0,52,0.00,,,0.00,Wunderground v.1.15,2013-04-04 05:12:00,
2013-04-04 00:15:00,49.2,32.8,29.89,NNW,331,0.0,0.0,53,0.00,,,0.00,Wunderground v.1.15,2013-04-04 05:15:00,
2013-04-04 00:16:00,49.2,32.8,29.89,NNW,331,0.0,0.0,53,0.00,,,0.00,Wunderground v.1.15,2013-04-04 05:16:00,
2013-04-04 00:17:00,49.2,33.3,29.89,NNW,331,0.0,0.0,54,0.00,,,0.00,Wunderground v.1.15,2013-04-04 05:17:00,
2013-04-04 00:20:00,49.2,32.3,29.89,NNW,327,2.0,2.0,52,0.00,,,0.00,Wunderground v.1.15,2013-04-04 05:20:00,
2013-04-04 00:22:00,49.2,32.3,29.89,North,360,0.0,2.0,52,0.00,,,0.00,Wunderground v.1.15,2013-04-04 05:22:00,
2013-04-04 00:23:00,49.2,32.8,29.89,North,360,0.0,0.0,53,0.00,,,0.00,Wunderground v.1.15,2013-04-04 05:23:00,
2013-04-04 00:24:00,49.2,32.3,29.89,North,360,0.0,0.0,52,0.00,,,0.00,Wunderground v.1.15,2013-04-04 05:24:00,
2013-04-04 00:28:00,49.2,32.8,29.88,NNW,332,0.0,0.0,53,0.00,,,0.00,Wunderground v.1.15,2013-04-04 05:28:00,
2013-04-04 00:29:00,49.2,32.8,29.88,East,96,0.0,0.0,53,0.00,,,0.00,Wunderground v.1.15,2013-04-04 05:29:00,
2013-04-04 00:31:00,49.1,33.2,29.88,East,96,0.0,0.0,54,0.00,,,0.00,Wunderground v.1.15,2013-04-04 05:31:00,
2013-04-04 00:35:00,49.0,32.6,29.88,NNW,340,0.0,2.0,53,0.00,,,0.00,Wunderground v.1.15,2013-04-04 05:35:00,
2013-04-04 00:36:00,49.1,32.7,29.88,North,5,0.0,2.0,53,0.00,,,0.00,Wunderground v.1.15,2013-04-04 05:36:00,
2013-04-04 00:37:00,49.0,32.6,29.88,North,5,0.0,2.0,53,0.00,,,0.00,Wunderground v.1.15,2013-04-04 05:37:00,
2013-04-04 00:42:00,49.0,32.6,29.88,NW,322,0.0,2.0,53,0.00,,,0.00,Wunderground v.1.15,2013-04-04 05:42:00,
2013-04-04 00:43:00,49.0,32.6,29.88,NW,323,0.0,0.0,53,0.00,,,0.00,Wunderground v.1.15,2013-04-04 05:43:00,
2013-04-04 00:44:00,48.9,32.5,29.88,NW,322,0.0,0.0,53,0.00,,,0.00,Wunderground v.1.15,2013-04-04 05:44:00,
2013-04-04 00:46:00,48.9,33.0,29.88,ESE,115,0.0,3.0,54,0.00,,,0.00,Wunderground v.1.15,2013-04-04 05:46:00,
2013-04-04 00:48:00,48.9,33.0,29.88,NW,316,0.0,3.0,54,0.00,,,0.00,Wunderground v.1.15,2013-04-04 05:48:00,
2013-04-04 00:50:00,48.8,32.9,29.88,NW,317,0.0,3.0,54,0.00,,,0.00,Wunderground v.1.15,2013-04-04 05:50:00,
2013-04-04 00:54:00,48.8,32.9,29.88,SE,125,0.0,0.0,54,0.00,,,0.00,Wunderground v.1.15,2013-04-04 05:54:00,
2013-04-04 00:57:00,48.8,32.9,29.88,North,11,0.0,1.0,54,0.00,,,0.00,Wunderground v.1.15,2013-04-04 05:57:00,
2013-04-04 00:58:00,48.7,32.8,29.88,NE,47,0.0,1.0,54,0.00,,,0.00,Wunderground v.1.15,2013-04-04 05:58:00,
2013-04-04 01:02:00,48.7,33.2,29.88,NNW,344,0.0,1.0,55,0.00,,,0.00,Wunderground v.1.15,2013-04-04 06:02:00,
2013-04-04 01:04:00,48.7,32.8,29.88,WNW,303,0.0,3.0,54,0.00,,,0.00,Wunderground v.1.15,2013-04-04 06:04:00,
2013-04-04 01:05:00,48.7,32.8,29.88,NW,304,0.0,3.0,54,0.00,,,0.00,Wunderground v.1.15,2013-04-04 06:05:00,
2013-04-04 01:07:00,48.7,33.2,29.88,NW,304,0.0,3.0,55,0.00,,,0.00,Wunderground v.1.15,2013-04-04 06:07:00,
2013-04-04 01:10:00,48.6,33.1,29.88,NW,304,0.0,3.0,55,0.00,,,0.00,Wunderground v.1.15,2013-04-04 06:10:00,
2013-04-04 01:11:00,48.6,33.1,29.88,WNW,303,0.0,3.0,55,0.00,,,0.00,Wunderground v.1.15,2013-04-04 06:11:00,
2013-04-04 01:14:00,48.6,33.1,29.87,East,95,0.0,0.0,55,0.00,,,0.00,Wunderground v.1.15,2013-04-04 06:14:00,
2013-04-04 01:15:00,48.6,33.1,29.88,East,96,0.0,0.0,55,0.00,,,0.00,Wunderground v.1.15,2013-04-04 06:15:00,
2013-04-04 01:16:00,48.6,32.7,29.88,East,88,0.0,0.0,54,0.00,,,0.00,Wunderground v.1.15,2013-04-04 06:16:00,
2013-04-04 01:20:00,48.6,32.7,29.87,NNW,342,0.0,0.0,54,0.00,,,0.00,Wunderground v.1.15,2013-04-04 06:20:00,
2013-04-04 01:23:00,48.6,33.1,29.87,NNW,342,0.0,0.0,55,0.00,,,0.00,Wunderground v.1.15,2013-04-04 06:23:00,
2013-04-04 01:24:00,48.6,33.1,29.87,NNW,342,0.0,0.0,55,0.00,,,0.00,Wunderground v.1.15,2013-04-04 06:24:00,
2013-04-04 01:27:00,48.5,33.5,29.87,NNW,342,0.0,0.0,56,0.00,,,0.00,Wunderground v.1.15,2013-04-04 06:27:00,
2013-04-04 01:28:00,48.5,33.1,29.87,NNW,342,0.0,0.0,55,0.00,,,0.00,Wunderground v.1.15,2013-04-04 06:28:00,
2013-04-04 01:30:00,48.5,33.5,29.87,North,360,0.0,0.0,56,0.00,,,0.00,Wunderground v.1.15,2013-04-04 06:30:00,
2013-04-04 01:34:00,48.4,33.9,29.87,North,360,0.0,0.0,57,0.00,,,0.00,Wunderground v.1.15,2013-04-04 06:34:00,
2013-04-04 01:35:00,48.3,34.2,29.87,North,360,0.0,0.0,58,0.00,,,0.00,Wunderground v.1.15,2013-04-04 06:35:00,
2013-04-04 01:36:00,48.3,34.2,29.87,North,360,0.0,0.0,58,0.00,,,0.00,Wunderground v.1.15,2013-04-04 06:36:00,
2013-04-04 01:37:00,48.3,34.2,29.87,North,360,0.0,0.0,58,0.00,,,0.00,Wunderground v.1.15,2013-04-04 06:37:00,
2013-04-04 01:39:00,48.2,34.1,29.87,North,360,0.0,0.0,58,0.00,,,0.00,Wunderground v.1.15,2013-04-04 06:39:00,
2013-04-04 01:40:00,48.2,35.0,29.87,North,360,0.0,0.0,60,0.00,,,0.00,Wunderground v.1.15,2013-04-04 06:40:00,
2013-04-04 01:41:00,48.2,34.5,29.87,North,360,0.0,0.0,59,0.00,,,0.00,Wunderground v.1.15,2013-04-04 06:41:00,
2013-04-04 01:43:00,48.1,34.4,29.87,North,360,0.0,0.0,59,0.00,,,0.00,Wunderground v.1.15,2013-04-04 06:43:00,
2013-04-04 01:44:00,48.1,34.4,29.87,North,360,0.0,0.0,59,0.00,,,0.00,Wunderground v.1.15,2013-04-04 06:44:00,
2013-04-04 01:45:00,48.0,34.8,29.87,North,360,0.0,0.0,60,0.00,,,0.00,Wunderground v.1.15,2013-04-04 06:45:00,
2013-04-04 01:49:00,47.9,34.7,29.87,North,360,0.0,0.0,60,0.00,,,0.00,Wunderground v.1.15,2013-04-04 06:49:00,
2013-04-04 01:51:00,47.8,34.6,29.87,North,5,0.0,0.0,60,0.00,,,0.00,Wunderground v.1.15,2013-04-04 06:51:00,
2013-04-04 01:54:00,47.7,35.7,29.86,North,360,0.0,0.0,63,0.00,,,0.00,Wunderground v.1.15,2013-04-04 06:54:00,
2013-04-04 01:55:00,47.7,36.1,29.86,North,360,0.0,0.0,64,0.00,,,0.00,Wunderground v.1.15,2013-04-04 06:55:00,
2013-04-04 01:59:00,47.4,36.2,29.86,North,5,0.0,0.0,65,0.00,,,0.01,Wunderground v.1.15,2013-04-04 06:59:00,
2013-04-04 02:00:00,47.4,36.6,29.86,North,5,0.0,0.0,66,0.00,,,0.01,Wunderground v.1.15,2013-04-04 07:00:00,
2013-04-04 02:04:00,47.1,36.7,29.86,North,5,0.0,0.0,67,0.00,,,0.01,Wunderground v.1.15,2013-04-04 07:04:00,
2013-04-04 02:05:00,47.0,37.0,29.85,North,5,0.0,0.0,68,0.00,,,0.01,Wunderground v.1.15,2013-04-04 07:05:00,
2013-04-04 02:10:00,46.5,36.9,29.86,North,360,0.0,0.0,69,0.00,,,0.01,Wunderground v.1.15,2013-04-04 07:10:00,
2013-04-04 02:15:00,46.2,37.3,29.85,North,5,0.0,0.0,71,0.00,,,0.01,Wunderground v.1.15,2013-04-04 07:15:00,
2013-04-04 02:20:00,45.9,37.0,29.85,NNE,13,0.0,1.0,71,0.00,,,0.01,Wunderground v.1.15,2013-04-04 07:20:00,
2013-04-04 02:21:00,45.8,37.3,29.85,NNE,13,0.0,1.0,72,0.00,,,0.01,Wunderground v.1.15,2013-04-04 07:21:00,
2013-04-04 02:26:00,45.5,37.7,29.85,NNE,13,0.0,0.0,74,0.00,,,0.01,Wunderground v.1.15,2013-04-04 07:26:00,
2013-04-04 02:31:00,45.3,37.8,29.85,NNE,13,0.0,0.0,75,0.00,,,0.02,Wunderground v.1.15,2013-04-04 07:31:00,
2013-04-04 02:32:00,45.2,37.7,29.85,NNE,13,0.0,0.0,75,0.00,,,0.02,Wunderground v.1.15,2013-04-04 07:32:00,
2013-04-04 02:36:00,45.0,38.2,29.85,ENE,72,0.0,0.0,77,0.00,,,0.02,Wunderground v.1.15,2013-04-04 07:36:00,
2013-04-04 02:37:00,45.0,38.2,29.84,ENE,72,0.0,0.0,77,0.00,,,0.02,Wunderground v.1.15,2013-04-04 07:37:00,
2013-04-04 02:42:00,44.8,37.7,29.84,North,360,0.0,4.0,76,0.00,,,0.02,Wunderground v.1.15,2013-04-04 07:42:00,
2013-04-04 02:43:00,44.7,37.9,29.84,North,360,0.0,0.0,77,0.00,,,0.02,Wunderground v.1.15,2013-04-04 07:43:00,
2013-04-04 02:47:00,44.6,37.8,29.84,North,360,0.0,0.0,77,0.00,,,0.02,Wunderground v.1.15,2013-04-04 07:47:00,
2013-04-04 02:48:00,44.6,37.8,29.84,North,360,0.0,0.0,77,0.00,,,0.02,Wunderground v.1.15,2013-04-04 07:48:00,
2013-04-04 02:52:00,44.4,38.0,29.83,North,5,0.0,0.0,78,0.00,,,0.02,Wunderground v.1.15,2013-04-04 07:52:00,
2013-04-04 02:53:00,44.4,38.0,29.83,North,5,0.0,0.0,78,0.00,,,0.02,Wunderground v.1.15,2013-04-04 07:53:00,
2013-04-04 02:54:00,44.3,37.9,29.83,North,360,0.0,0.0,78,0.00,,,0.02,Wunderground v.1.15,2013-04-04 07:54:00,
2013-04-04 02:58:00,44.2,37.8,29.83,North,5,0.0,0.0,78,0.00,,,0.02,Wunderground v.1.15,2013-04-04 07:58:00,
2013-04-04 02:59:00,44.2,38.4,29.83,North,360,0.0,0.0,80,0.00,,,0.02,Wunderground v.1.15,2013-04-04 07:59:00,
2013-04-04 03:00:00,44.2,38.4,29.83,North,5,0.0,0.0,80,0.00,,,0.02,Wunderground v.1.15,2013-04-04 08:00:00,
2013-04-04 03:04:00,44.1,38.3,29.83,NW,321,1.0,1.0,80,0.00,,,0.02,Wunderground v.1.15,2013-04-04 08:04:00,
2013-04-04 03:05:00,44.1,38.3,29.83,WNW,295,0.0,2.0,80,0.00,,,0.02,Wunderground v.1.15,2013-04-04 08:05:00,
2013-04-04 03:06:00,44.0,38.5,29.83,WNW,296,2.0,2.0,81,0.00,,,0.02,Wunderground v.1.15,2013-04-04 08:06:00,
2013-04-04 03:10:00,43.9,38.4,29.83,NW,319,0.0,2.0,81,0.00,,,0.02,Wunderground v.1.15,2013-04-04 08:10:00,
2013-04-04 03:12:00,43.8,38.7,29.83,NW,319,0.0,2.0,82,0.00,,,0.03,Wunderground v.1.15,2013-04-04 08:12:00,
2013-04-04 03:15:00,43.7,38.3,29.83,NW,319,0.0,1.0,81,0.00,,,0.03,Wunderground v.1.15,2013-04-04 08:15:00,
2013-04-04 03:16:00,43.7,38.3,29.83,NW,319,0.0,1.0,81,0.00,,,0.03,Wunderground v.1.15,2013-04-04 08:16:00,
2013-04-04 03:18:00,43.7,38.6,29.83,NW,319,0.0,1.0,82,0.00,,,0.03,Wunderground v.1.15,2013-04-04 08:18:00,
2013-04-04 03:20:00,43.6,38.8,29.83,NW,319,0.0,1.0,83,0.00,,,0.03,Wunderground v.1.15,2013-04-04 08:20:00,
2013-04-04 03:21:00,43.6,38.8,29.83,NW,319,0.0,1.0,83,0.00,,,0.03,Wunderground v.1.15,2013-04-04 08:21:00,
2013-04-04 03:23:00,43.5,38.7,29.83,NW,319,0.0,0.0,83,0.00,,,0.03,Wunderground v.1.15,2013-04-04 08:23:00,
2013-04-04 03:25:00,43.5,38.7,29.83,NW,319,0.0,0.0,83,0.00,,,0.03,Wunderground v.1.15,2013-04-04 08:25:00,
2013-04-04 03:26:00,43.4,38.9,29.82,NW,319,0.0,0.0,84,0.04,,,0.04,Wunderground v.1.15,2013-04-04 08:26:00,
2013-04-04 03:28:00,43.4,38.9,29.82,NW,319,0.0,0.0,84,0.04,,,0.04,Wunderground v.1.15,2013-04-04 08:28:00,
2013-04-04 03:31:00,43.3,38.8,29.82,NW,305,0.0,0.0,84,0.04,,,0.04,Wunderground v.1.15,2013-04-04 08:31:00,
2013-04-04 03:32:00,43.3,39.1,29.82,NW,304,0.0,0.0,85,0.04,,,0.04,Wunderground v.1.15,2013-04-04 08:32:00,
2013-04-04 03:33:00,43.3,39.1,29.82,NW,305,0.0,0.0,85,0.04,,,0.04,Wunderground v.1.15,2013-04-04 08:33:00,
2013-04-04 03:38:00,43.1,39.2,29.82,NW,304,0.0,0.0,86,0.07,,,0.05,Wunderground v.1.15,2013-04-04 08:38:00,
2013-04-04 03:39:00,43.1,39.2,29.82,NW,305,0.0,0.0,86,0.07,,,0.05,Wunderground v.1.15,2013-04-04 08:39:00,
2013-04-04 03:43:00,43.0,39.1,29.82,NNW,341,0.0,0.0,86,0.07,,,0.05,Wunderground v.1.15,2013-04-04 08:43:00,
2013-04-04 03:44:00,42.9,39.0,29.82,NNW,341,0.0,0.0,86,0.07,,,0.05,Wunderground v.1.15,2013-04-04 08:44:00,
2013-04-04 03:45:00,42.9,39.3,29.81,NNW,341,0.0,0.0,87,0.06,,,0.05,Wunderground v.1.15,2013-04-04 08:45:00,
2013-04-04 03:48:00,42.8,39.2,29.81,NW,318,0.0,0.0,87,0.05,,,0.05,Wunderground v.1.15,2013-04-04 08:48:00,
2013-04-04 03:49:00,42.8,39.2,29.81,NNE,13,0.0,3.0,87,0.04,,,0.05,Wunderground v.1.15,2013-04-04 08:49:00,
2013-04-04 03:50:00,42.7,39.1,29.81,NNW,346,3.0,3.0,87,0.04,,,0.05,Wunderground v.1.15,2013-04-04 08:50:00,
2013-04-04 03:54:00,42.6,39.0,29.81,North,360,0.0,4.0,87,0.00,,,0.06,Wunderground v.1.15,2013-04-04 08:54:00,
2013-04-04 03:55:00,42.6,39.0,29.81,North,360,0.0,4.0,87,0.00,,,0.06,Wunderground v.1.15,2013-04-04 08:55:00,
2013-04-04 03:56:00,42.6,39.3,29.81,North,360,0.0,4.0,88,0.00,,,0.06,Wunderground v.1.15,2013-04-04 08:56:00,
2013-04-04 03:59:00,42.5,39.2,29.81,North,360,0.0,4.0,88,0.00,,,0.06,Wunderground v.1.15,2013-04-04 08:59:00,
2013-04-04 04:00:00,42.5,39.2,29.81,East,100,0.0,4.0,88,0.00,,,0.06,Wunderground v.1.15,2013-04-04 09:00:00,
2013-04-04 04:02:00,42.5,39.2,29.81,North,10,0.0,4.0,88,0.00,,,0.06,Wunderground v.1.15,2013-04-04 09:02:00,
2013-04-04 04:05:00,42.4,39.1,29.81,North,10,0.0,0.0,88,0.00,,,0.06,Wunderground v.1.15,2013-04-04 09:05:00,
2013-04-04 04:07:00,42.4,39.4,29.82,East,88,0.0,3.0,89,0.00,,,0.06,Wunderground v.1.15,2013-04-04 09:07:00,
2013-04-04 04:10:00,42.3,39.3,29.82,East,85,0.0,3.0,89,0.00,,,0.06,Wunderground v.1.15,2013-04-04 09:10:00,
2013-04-04 04:11:00,42.3,39.3,29.81,ENE,75,0.0,3.0,89,0.00,,,0.06,Wunderground v.1.15,2013-04-04 09:11:00,
2013-04-04 04:12:00,42.3,39.3,29.81,North,5,1.0,3.0,89,0.00,,,0.06,Wunderground v.1.15,2013-04-04 09:12:00,
2013-04-04 04:15:00,42.3,39.6,29.81,NNW,342,0.0,4.0,90,0.00,,,0.06,Wunderground v.1.15,2013-04-04 09:15:00,
2013-04-04 04:16:00,42.2,39.5,29.81,NW,326,4.0,4.0,90,0.00,,,0.06,Wunderground v.1.15,2013-04-04 09:16:00,
2013-04-04 04:17:00,42.2,39.5,29.81,NNW,340,0.0,4.0,90,0.00,,,0.07,Wunderground v.1.15,2013-04-04 09:17:00,
2013-04-04 04:21:00,42.1,39.4,29.81,NNW,344,2.0,5.0,90,0.00,,,0.07,Wunderground v.1.15,2013-04-04 09:21:00,
2013-04-04 04:22:00,42.1,39.4,29.81,East,90,5.0,5.0,90,0.00,,,0.07,Wunderground v.1.15,2013-04-04 09:22:00,
2013-04-04 04:23:00,42.1,39.4,29.81,NNW,339,0.0,2.0,90,0.00,,,0.07,Wunderground v.1.15,2013-04-04 09:23:00,
2013-04-04 04:27:00,42.0,39.6,29.81,NNW,338,0.0,2.0,91,0.00,,,0.07,Wunderground v.1.15,2013-04-04 09:27:00,
2013-04-04 04:28:00,42.0,39.6,29.81,NNW,338,0.0,2.0,91,0.00,,,0.07,Wunderground v.1.15,2013-04-04 09:28:00,
2013-04-04 04:32:00,41.9,39.5,29.81,NNW,342,2.0,2.0,91,0.15,,,0.09,Wunderground v.1.15,2013-04-04 09:32:00,
2013-04-04 04:33:00,41.9,39.5,29.81,SE,136,3.0,3.0,91,0.15,,,0.09,Wunderground v.1.15,2013-04-04 09:33:00,
2013-04-04 04:34:00,41.9,39.5,29.81,North,10,1.0,3.0,91,0.15,,,0.09,Wunderground v.1.15,2013-04-04 09:34:00,
2013-04-04 04:37:00,41.8,39.4,29.81,NW,325,0.0,3.0,91,0.18,,,0.10,Wunderground v.1.15,2013-04-04 09:37:00,
2013-04-04 04:38:00,41.8,39.4,29.81,NW,314,0.0,4.0,91,0.18,,,0.10,Wunderground v.1.15,2013-04-04 09:38:00,
2013-04-04 04:39:00,41.8,39.6,29.81,NNW,338,0.0,4.0,92,0.13,,,0.10,Wunderground v.1.15,2013-04-04 09:39:00,
2013-04-04 04:43:00,41.8,39.6,29.80,North,355,0.0,0.0,92,0.12,,,0.11,Wunderground v.1.15,2013-04-04 09:43:00,
2013-04-04 04:44:00,41.8,39.6,29.81,North,355,0.0,0.0,92,0.12,,,0.11,Wunderground v.1.15,2013-04-04 09:44:00,
2013-04-04 04:45:00,41.7,39.5,29.80,North,355,0.0,0.0,92,0.14,,,0.12,Wunderground v.1.15,2013-04-04 09:45:00,
2013-04-04 04:49:00,41.7,39.5,29.81,NW,307,0.0,0.0,92,0.12,,,0.12,Wunderground v.1.15,2013-04-04 09:49:00,
2013-04-04 04:50:00,41.7,39.5,29.81,NW,307,0.0,0.0,92,0.12,,,0.13,Wunderground v.1.15,2013-04-04 09:50:00,
2013-04-04 04:54:00,41.7,39.5,29.80,North,350,2.0,3.0,92,0.15,,,0.14,Wunderground v.1.15,2013-04-04 09:54:00,
2013-04-04 04:55:00,41.7,39.5,29.80,NW,317,0.0,3.0,92,0.15,,,0.14,Wunderground v.1.15,2013-04-04 09:55:00,
2013-04-04 04:56:00,41.7,39.5,29.80,NW,317,0.0,3.0,92,0.15,,,0.14,Wunderground v.1.15,2013-04-04 09:56:00,
2013-04-04 05:00:00,41.6,39.4,29.80,NNW,347,1.0,4.0,92,0.14,,,0.15,Wunderground v.1.15,2013-04-04 10:00:00,
2013-04-04 05:01:00,41.6,39.7,29.80,NNW,346,0.0,4.0,93,0.14,,,0.15,Wunderground v.1.15,2013-04-04 10:01:00,
2013-04-04 05:02:00,41.6,39.7,29.80,NNW,346,0.0,4.0,93,0.14,,,0.15,Wunderground v.1.15,2013-04-04 10:02:00,
2013-04-04 05:05:00,41.6,39.7,29.80,NNE,13,2.0,4.0,93,0.14,,,0.16,Wunderground v.1.15,2013-04-04 10:05:00,
2013-04-04 05:06:00,41.6,39.7,29.80,North,355,0.0,4.0,93,0.14,,,0.16,Wunderground v.1.15,2013-04-04 10:06:00,
2013-04-04 05:07:00,41.6,39.7,29.80,North,355,0.0,4.0,93,0.12,,,0.16,Wunderground v.1.15,2013-04-04 10:07:00,
2013-04-04 05:09:00,41.6,39.7,29.80,North,355,0.0,4.0,93,0.12,,,0.17,Wunderground v.1.15,2013-04-04 10:09:00,
2013-04-04 05:11:00,41.6,39.7,29.79,SE,133,0.0,4.0,93,0.12,,,0.17,Wunderground v.1.15,2013-04-04 10:11:00,
2013-04-04 05:13:00,41.6,39.7,29.80,West,263,0.0,1.0,93,0.11,,,0.17,Wunderground v.1.15,2013-04-04 10:13:00,
2013-04-04 05:14:00,41.6,39.7,29.80,SE,133,0.0,1.0,93,0.09,,,0.17,Wunderground v.1.15,2013-04-04 10:14:00,
2013-04-04 05:16:00,41.6,39.7,29.80,NNW,342,0.0,4.0,93,0.08,,,0.18,Wunderground v.1.15,2013-04-04 10:16:00,
2013-04-04 05:17:00,41.6,39.7,29.80,NNW,342,2.0,4.0,93,0.08,,,0.18,Wunderground v.1.15,2013-04-04 10:17:00,
2013-04-04 05:18:00,41.6,39.7,29.80,East,98,0.0,4.0,93,0.08,,,0.18,Wunderground v.1.15,2013-04-04 10:18:00,
2013-04-04 05:20:00,41.5,39.6,29.80,NNW,344,0.0,6.0,93,0.08,,,0.18,Wunderground v.1.15,2013-04-04 10:20:00,
2013-04-04 05:22:00,41.5,39.6,29.80,NW,312,4.0,6.0,93,0.08,,,0.19,Wunderground v.1.15,2013-04-04 10:22:00,
2013-04-04 05:23:00,41.5,39.6,29.80,East,81,0.0,1.0,93,0.08,,,0.19,Wunderground v.1.15,2013-04-04 10:23:00,
2013-04-04 05:24:00,41.5,39.6,29.80,East,80,0.0,1.0,93,0.08,,,0.19,Wunderground v.1.15,2013-04-04 10:24:00,
2013-04-04 05:25:00,41.5,39.6,29.80,East,94,0.0,1.0,93,0.08,,,0.19,Wunderground v.1.15,2013-04-04 10:25:00,
2013-04-04 05:27:00,41.5,39.6,29.80,East,97,0.0,1.0,93,0.08,,,0.19,Wunderground v.1.15,2013-04-04 10:27:00,
2013-04-04 05:29:00,41.5,39.6,29.80,East,96,0.0,1.0,93,0.09,,,0.20,Wunderground v.1.15,2013-04-04 10:29:00,
2013-04-04 05:30:00,41.5,39.6,29.80,East,96,0.0,1.0,93,0.09,,,0.20,Wunderground v.1.15,2013-04-04 10:30:00,
2013-04-04 05:31:00,41.5,39.6,29.80,East,96,0.0,1.0,93,0.09,,,0.20,Wunderground v.1.15,2013-04-04 10:31:00,
2013-04-04 05:33:00,41.5,39.6,29.80,East,97,0.0,0.0,93,0.09,,,0.20,Wunderground v.1.15,2013-04-04 10:33:00,
2013-04-04 05:35:00,41.5,39.6,29.80,East,97,0.0,0.0,93,0.09,,,0.20,Wunderground v.1.15,2013-04-04 10:35:00,
2013-04-04 05:37:00,41.5,39.6,29.80,East,97,0.0,0.0,93,0.08,,,0.21,Wunderground v.1.15,2013-04-04 10:37:00,
2013-04-04 05:39:00,41.5,39.6,29.81,East,97,0.0,0.0,93,0.08,,,0.21,Wunderground v.1.15,2013-04-04 10:39:00,
2013-04-04 05:40:00,41.5,39.6,29.80,East,96,0.0,0.0,93,0.08,,,0.21,Wunderground v.1.15,2013-04-04 10:40:00,
2013-04-04 05:42:00,41.5,39.6,29.81,East,97,0.0,0.0,93,0.11,,,0.22,Wunderground v.1.15,2013-04-04 10:42:00,
2013-04-04 05:45:00,41.5,39.6,29.81,ESE,102,0.0,0.0,93,0.11,,,0.22,Wunderground v.1.15,2013-04-04 10:45:00,
2013-04-04 05:46:00,41.6,39.7,29.80,ESE,102,0.0,0.0,93,0.11,,,0.22,Wunderground v.1.15,2013-04-04 10:46:00,
2013-04-04 05:47:00,41.5,39.6,29.80,ESE,102,0.0,0.0,93,0.11,,,0.22,Wunderground v.1.15,2013-04-04 10:47:00,
2013-04-04 05:50:00,41.6,40.0,29.81,NNE,26,5.0,5.0,94,0.11,,,0.23,Wunderground v.1.15,2013-04-04 10:50:00,
2013-04-04 05:51:00,41.6,40.0,29.81,NNW,348,0.0,5.0,94,0.11,,,0.23,Wunderground v.1.15,2013-04-04 10:51:00,
2013-04-04 05:53:00,41.5,39.9,29.81,NNW,346,0.0,0.0,94,0.11,,,0.23,Wunderground v.1.15,2013-04-04 10:53:00,
2013-04-04 05:56:00,41.5,39.9,29.81,West,280,5.0,5.0,94,0.11,,,0.24,Wunderground v.1.15,2013-04-04 10:56:00,
2013-04-04 05:57:00,41.5,39.9,29.81,WNW,291,2.0,5.0,94,0.11,,,0.24,Wunderground v.1.15,2013-04-04 10:57:00,
2013-04-04 05:58:00,41.5,39.9,29.81,East,86,0.0,5.0,94,0.11,,,0.24,Wunderground v.1.15,2013-04-04 10:58:00,
2013-04-04 05:59:00,41.5,39.9,29.81,East,86,0.0,5.0,94,0.11,,,0.24,Wunderground v.1.15,2013-04-04 10:59:00,
2013-04-04 06:02:00,41.5,39.9,29.81,NNW,345,0.0,5.0,94,0.11,,,0.25,Wunderground v.1.15,2013-04-04 11:02:00,
2013-04-04 06:03:00,41.5,39.9,29.81,NNW,344,0.0,0.0,94,0.11,,,0.25,Wunderground v.1.15,2013-04-04 11:03:00,
2013-04-04 06:04:00,41.5,39.9,29.81,NW,325,0.0,0.0,94,0.10,,,0.25,Wunderground v.1.15,2013-04-04 11:04:00,
2013-04-04 06:07:00,41.5,39.9,29.81,ESE,104,0.0,0.0,94,0.07,,,0.25,Wunderground v.1.15,2013-04-04 11:07:00,
2013-04-04 06:08:00,41.5,39.9,29.81,ESE,103,0.0,0.0,94,0.07,,,0.26,Wunderground v.1.15,2013-04-04 11:08:00,
2013-04-04 06:11:00,41.5,39.9,29.81,ESE,103,0.0,0.0,94,0.07,,,0.26,Wunderground v.1.15,2013-04-04 11:11:00,
2013-04-04 06:12:00,41.5,39.9,29.81,ESE,103,0.0,0.0,94,0.07,,,0.26,Wunderground v.1.15,2013-04-04 11:12:00,
2013-04-04 06:13:00,41.5,39.9,29.81,ESE,103,0.0,0.0,94,0.07,,,0.26,Wunderground v.1.15,2013-04-04 11:13:00,
2013-04-04 06:17:00,41.5,39.9,29.81,ESE,102,0.0,0.0,94,0.06,,,0.26,Wunderground v.1.15,2013-04-04 11:17:00,
2013-04-04 06:18:00,41.5,39.9,29.81,ESE,103,0.0,0.0,94,0.06,,,0.26,Wunderground v.1.15,2013-04-04 11:18:00,
2013-04-04 06:22:00,41.5,39.9,29.81,ESE,103,0.0,0.0,94,0.04,,,0.26,Wunderground v.1.15,2013-04-04 11:22:00,
2013-04-04 06:23:00,41.5,39.9,29.81,ESE,103,0.0,0.0,94,0.04,,,0.26,Wunderground v.1.15,2013-04-04 11:23:00,
2013-04-04 06:25:00,41.5,39.9,29.81,ESE,103,0.0,0.0,94,0.00,,,0.26,Wunderground v.1.15,2013-04-04 11:25:00,
2013-04-04 06:27:00,41.5,39.9,29.81,North,360,0.0,3.0,94,0.00,,,0.27,Wunderground v.1.15,2013-04-04 11:27:00,
2013-04-04 06:28:00,41.5,39.9,29.81,NNW,348,0.0,3.0,94,0.00,,,0.27,Wunderground v.1.15,2013-04-04 11:28:00,
2013-04-04 06:30:00,41.4,39.8,29.81,North,349,0.0,3.0,94,0.00,,,0.27,Wunderground v.1.15,2013-04-04 11:30:00,
2013-04-04 06:33:00,41.4,39.8,29.81,North,349,0.0,0.0,94,0.00,,,0.27,Wunderground v.1.15,2013-04-04 11:33:00,
2013-04-04 06:35:00,41.4,39.8,29.81,North,349,0.0,0.0,94,0.00,,,0.27,Wunderground v.1.15,2013-04-04 11:35:00,
2013-04-04 06:38:00,41.5,39.9,29.82,North,349,0.0,0.0,94,0.00,,,0.27,Wunderground v.1.15,2013-04-04 11:38:00,
2013-04-04 06:40:00,41.5,39.9,29.82,North,349,0.0,1.0,94,0.00,,,0.27,Wunderground v.1.15,2013-04-04 11:40:00,
2013-04-04 06:43:00,41.5,39.9,29.82,North,5,0.0,0.0,94,0.00,,,0.27,Wunderground v.1.15,2013-04-04 11:43:00,
2013-04-04 06:46:00,41.5,39.9,29.82,North,5,0.0,0.0,94,0.00,,,0.27,Wunderground v.1.15,2013-04-04 11:46:00,
2013-04-04 06:48:00,41.4,39.8,29.82,NNW,338,2.0,4.0,94,0.00,,,0.27,Wunderground v.1.15,2013-04-04 11:48:00,
2013-04-04 06:49:00,41.5,39.9,29.82,NNW,338,2.0,4.0,94,0.00,,,0.27,Wunderground v.1.15,2013-04-04 11:49:00,
2013-04-04 06:50:00,41.5,39.9,29.82,NNW,338,0.0,4.0,94,0.00,,,0.27,Wunderground v.1.15,2013-04-04 11:50:00,
2013-04-04 06:51:00,41.5,39.9,29.82,NNW,338,0.0,4.0,94,0.00,,,0.27,Wunderground v.1.15,2013-04-04 11:51:00,
2013-04-04 06:53:00,41.5,39.9,29.82,NNW,338,0.0,0.0,94,0.00,,,0.27,Wunderground v.1.15,2013-04-04 11:53:00,
2013-04-04 06:54:00,41.5,39.9,29.82,NNW,337,0.0,0.0,94,0.00,,,0.28,Wunderground v.1.15,2013-04-04 11:54:00,
2013-04-04 06:55:00,41.5,39.9,29.82,NNW,338,0.0,0.0,94,0.00,,,0.28,Wunderground v.1.15,2013-04-04 11:55:00,
2013-04-04 06:57:00,41.5,39.9,29.82,NNW,338,0.0,0.0,94,0.00,,,0.28,Wunderground v.1.15,2013-04-04 11:57:00,
2013-04-04 06:58:00,41.5,39.9,29.82,NNW,338,0.0,0.0,94,0.00,,,0.28,Wunderground v.1.15,2013-04-04 11:58:00,
2013-04-04 07:00:00,41.5,39.9,29.82,NW,309,2.0,3.0,94,0.00,,,0.28,Wunderground v.1.15,2013-04-04 12:00:00,
2013-04-04 07:02:00,41.4,39.8,29.82,NNW,344,0.0,3.0,94,0.00,,,0.28,Wunderground v.1.15,2013-04-04 12:02:00,
2013-04-04 07:03:00,41.4,39.8,29.82,North,11,0.0,0.0,94,0.00,,,0.28,Wunderground v.1.15,2013-04-04 12:03:00,
2013-04-04 07:05:00,41.4,39.8,29.82,NNW,346,0.0,0.0,94,0.00,,,0.28,Wunderground v.1.15,2013-04-04 12:05:00,
2013-04-04 07:07:00,41.4,39.8,29.82,NNW,348,0.0,2.0,94,0.00,,,0.28,Wunderground v.1.15,2013-04-04 12:07:00,
2013-04-04 07:08:00,41.4,39.8,29.82,NNW,348,0.0,2.0,94,0.00,,,0.28,Wunderground v.1.15,2013-04-04 12:08:00,
2013-04-04 07:09:00,41.4,39.8,29.82,NNW,348,0.0,2.0,94,0.00,,,0.28,Wunderground v.1.15,2013-04-04 12:09:00,
2013-04-04 07:12:00,41.4,39.8,29.82,NE,46,0.0,3.0,94,0.00,,,0.28,Wunderground v.1.15,2013-04-04 12:12:00,
2013-04-04 07:13:00,41.4,39.8,29.82,NE,46,0.0,0.0,94,0.00,,,0.28,Wunderground v.1.15,2013-04-04 12:13:00,
2013-04-04 07:14:00,41.4,39.8,29.82,NE,46,0.0,0.0,94,0.00,,,0.28,Wunderground v.1.15,2013-04-04 12:14:00,
2013-04-04 07:17:00,41.4,39.8,29.82,NW,313,0.0,3.0,94,0.00,,,0.28,Wunderground v.1.15,2013-04-04 12:17:00,
2013-04-04 07:18:00,41.4,39.8,29.82,NW,313,0.0,3.0,94,0.00,,,0.28,Wunderground v.1.15,2013-04-04 12:18:00,
2013-04-04 07:19:00,41.4,39.8,29.82,NW,315,0.0,3.0,94,0.00,,,0.28,Wunderground v.1.15,2013-04-04 12:19:00,
2013-04-04 07:22:00,41.4,39.8,29.82,NNE,17,0.0,3.0,94,0.00,,,0.28,Wunderground v.1.15,2013-04-04 12:22:00,
2013-04-04 07:23:00,41.4,39.8,29.82,NNE,16,0.0,0.0,94,0.00,,,0.28,Wunderground v.1.15,2013-04-04 12:23:00,
2013-04-04 07:24:00,41.4,39.8,29.82,North,360,0.0,0.0,94,0.00,,,0.28,Wunderground v.1.15,2013-04-04 12:24:00,
2013-04-04 07:28:00,41.5,39.9,29.82,NNW,338,0.0,0.0,94,0.00,,,0.28,Wunderground v.1.15,2013-04-04 12:28:00,
2013-04-04 07:29:00,41.5,39.9,29.82,NNE,14,0.0,0.0,94,0.00,,,0.28,Wunderground v.1.15,2013-04-04 12:29:00,
2013-04-04 07:30:00,41.5,39.9,29.82,NNE,14,0.0,0.0,94,0.00,,,0.28,Wunderground v.1.15,2013-04-04 12:30:00,
2013-04-04 07:34:00,41.5,39.9,29.82,North,349,2.0,2.0,94,0.00,,,0.28,Wunderground v.1.15,2013-04-04 12:34:00,
2013-04-04 07:35:00,41.5,39.9,29.82,NNE,19,0.0,3.0,94,0.00,,,0.28,Wunderground v.1.15,2013-04-04 12:35:00,
2013-04-04 07:39:00,41.5,39.9,29.82,NNE,19,0.0,3.0,94,0.00,,,0.28,Wunderground v.1.15,2013-04-04 12:39:00,
2013-04-04 07:40:00,41.5,39.9,29.82,NNE,19,0.0,3.0,94,0.00,,,0.28,Wunderground v.1.15,2013-04-04 12:40:00,
2013-04-04 07:44:00,41.6,40.0,29.82,NNE,19,0.0,0.0,94,0.00,,,0.28,Wunderground v.1.15,2013-04-04 12:44:00,
2013-04-04 07:46:00,41.6,40.0,29.82,NNE,19,0.0,0.0,94,0.00,,,0.28,Wunderground v.1.15,2013-04-04 12:46:00,
2013-04-04 07:49:00,41.6,40.0,29.82,East,98,0.0,2.0,94,0.00,,,0.28,Wunderground v.1.15,2013-04-04 12:49:00,
2013-04-04 07:51:00,41.6,40.0,29.82,East,98,0.0,2.0,94,0.00,,,0.28,Wunderground v.1.15,2013-04-04 12:51:00,
2013-04-04 07:55:00,41.7,40.1,29.82,NW,316,1.0,3.0,94,0.00,,,0.28,Wunderground v.1.15,2013-04-04 12:55:00,
2013-04-04 07:56:00,41.7,40.1,29.82,NW,317,0.0,3.0,94,0.00,,,0.28,Wunderground v.1.15,2013-04-04 12:56:00,
2013-04-04 07:57:00,41.7,40.1,29.82,NW,317,0.0,3.0,94,0.00,,,0.28,Wunderground v.1.15,2013-04-04 12:57:00,
2013-04-04 08:00:00,41.8,40.2,29.82,ENE,76,0.0,4.0,94,0.00,,,0.28,Wunderground v.1.15,2013-04-04 13:00:00,
2013-04-04 08:02:00,41.7,40.1,29.82,ENE,76,0.0,4.0,94,0.00,,,0.28,Wunderground v.1.15,2013-04-04 13:02:00,
2013-04-04 08:06:00,41.7,40.1,29.81,WNW,290,0.0,3.0,94,0.00,,,0.28,Wunderground v.1.15,2013-04-04 13:06:00,
2013-04-04 08:07:00,41.7,40.1,29.81,NNW,330,0.0,3.0,94,0.00,,,0.28,Wunderground v.1.15,2013-04-04 13:07:00,
2013-04-04 08:08:00,41.8,40.2,29.81,NNW,342,2.0,3.0,94,0.00,,,0.29,Wunderground v.1.15,2013-04-04 13:08:00,
2013-04-04 08:11:00,41.8,40.2,29.81,NE,40,0.0,3.0,94,0.00,,,0.29,Wunderground v.1.15,2013-04-04 13:11:00,
2013-04-04 08:12:00,41.8,40.2,29.81,NE,40,0.0,3.0,94,0.00,,,0.29,Wunderground v.1.15,2013-04-04 13:12:00,
2013-04-04 08:14:00,41.8,40.2,29.82,NE,40,0.0,1.0,94,0.00,,,0.29,Wunderground v.1.15,2013-04-04 13:14:00,
2013-04-04 08:16:00,41.8,40.2,29.82,North,355,0.0,5.0,94,0.00,,,0.29,Wunderground v.1.15,2013-04-04 13:16:00,
2013-04-04 08:17:00,41.8,40.2,29.82,North,355,0.0,5.0,94,0.00,,,0.29,Wunderground v.1.15,2013-04-04 13:17:00,
2013-04-04 08:19:00,41.8,40.2,29.82,NW,321,0.0,5.0,94,0.00,,,0.29,Wunderground v.1.15,2013-04-04 13:19:00,
2013-04-04 08:21:00,41.8,40.2,29.82,NNW,344,0.0,5.0,94,0.00,,,0.29,Wunderground v.1.15,2013-04-04 13:21:00,
2013-04-04 08:22:00,41.9,40.3,29.82,East,87,0.0,5.0,94,0.00,,,0.29,Wunderground v.1.15,2013-04-04 13:22:00,
2013-04-04 08:24:00,41.9,40.3,29.82,NNW,338,0.0,1.0,94,0.00,,,0.29,Wunderground v.1.15,2013-04-04 13:24:00,
2013-04-04 08:27:00,41.9,40.3,29.82,NNW,340,0.0,3.0,94,0.00,,,0.29,Wunderground v.1.15,2013-04-04 13:27:00,
2013-04-04 08:30:00,41.9,40.3,29.82,NNW,344,0.0,3.0,94,0.00,,,0.29,Wunderground v.1.15,2013-04-04 13:30:00,
2013-04-04 08:32:00,42.0,40.4,29.81,ENE,66,0.0,3.0,94,0.00,,,0.29,Wunderground v.1.15,2013-04-04 13:32:00,
2013-04-04 08:34:00,42.0,40.4,29.82,NW,323,4.0,6.0,94,0.00,,,0.29,Wunderground v.1.15,2013-04-04 13:34:00,
2013-04-04 08:35:00,42.0,40.4,29.82,NNW,327,2.0,6.0,94,0.00,,,0.29,Wunderground v.1.15,2013-04-04 13:35:00,
2013-04-04 08:37:00,42.0,40.4,29.81,NNW,327,0.0,6.0,94,0.00,,,0.29,Wunderground v.1.15,2013-04-04 13:37:00,
2013-04-04 08:40:00,42.0,40.4,29.82,NNW,327,0.0,6.0,94,0.00,,,0.29,Wunderground v.1.15,2013-04-04 13:40:00,
2013-04-04 08:43:00,42.0,40.4,29.82,NNW,327,1.0,2.0,94,0.00,,,0.29,Wunderground v.1.15,2013-04-04 13:43:00,
2013-04-04 08:45:00,42.1,40.5,29.82,NNW,327,0.0,2.0,94,0.00,,,0.29,Wunderground v.1.15,2013-04-04 13:45:00,
2013-04-04 08:48:00,42.1,40.5,29.82,NW,326,0.0,2.0,94,0.00,,,0.29,Wunderground v.1.15,2013-04-04 13:48:00,
2013-04-04 08:50:00,42.1,40.5,29.81,NW,324,0.0,2.0,94,0.00,,,0.29,Wunderground v.1.15,2013-04-04 13:50:00,
2013-04-04 08:53:00,42.2,40.6,29.81,North,360,0.0,1.0,94,0.00,,,0.29,Wunderground v.1.15,2013-04-04 13:53:00,
2013-04-04 08:56:00,42.2,40.6,29.81,North,360,0.0,2.0,94,0.00,,,0.29,Wunderground v.1.15,2013-04-04 13:56:00,
2013-04-04 09:00:00,42.2,40.6,29.81,NW,314,0.0,2.0,94,0.00,,,0.29,Wunderground v.1.15,2013-04-04 14:00:00,
2013-04-04 09:01:00,42.3,40.7,29.81,NNW,340,0.0,2.0,94,0.00,,,0.29,Wunderground v.1.15,2013-04-04 14:01:00,
2013-04-04 09:02:00,42.3,40.7,29.81,NE,40,0.0,2.0,94,0.00,,,0.29,Wunderground v.1.15,2013-04-04 14:02:00,
2013-04-04 09:05:00,42.3,40.7,29.81,North,360,2.0,3.0,94,0.00,,,0.29,Wunderground v.1.15,2013-04-04 14:05:00,
2013-04-04 09:06:00,42.3,40.7,29.81,NNE,30,0.0,3.0,94,0.00,,,0.29,Wunderground v.1.15,2013-04-04 14:06:00,
2013-04-04 09:07:00,42.3,40.7,29.81,NNE,31,0.0,3.0,94,0.00,,,0.29,Wunderground v.1.15,2013-04-04 14:07:00,
2013-04-04 09:08:00,42.4,40.8,29.81,NNW,333,2.0,3.0,94,0.00,,,0.29,Wunderground v.1.15,2013-04-04 14:08:00,
2013-04-04 09:10:00,42.4,40.8,29.81,NNW,333,0.0,3.0,94,0.00,,,0.29,Wunderground v.1.15,2013-04-04 14:10:00,
2013-04-04 09:11:00,42.4,40.8,29.81,NW,323,0.0,3.0,94,0.00,,,0.29,Wunderground v.1.15,2013-04-04 14:11:00,
2013-04-04 09:12:00,42.4,40.8,29.81,NW,323,0.0,3.0,94,0.00,,,0.29,Wunderground v.1.15,2013-04-04 14:12:00,
2013-04-04 09:13:00,42.4,40.8,29.81,NW,323,0.0,1.0,94,0.00,,,0.29,Wunderground v.1.15,2013-04-04 14:13:00,
2013-04-04 09:16:00,42.5,40.9,29.81,East,96,0.0,1.0,94,0.00,,,0.29,Wunderground v.1.15,2013-04-04 14:16:00,
2013-04-04 09:17:00,42.5,40.9,29.81,NNW,348,0.0,2.0,94,0.00,,,0.29,Wunderground v.1.15,2013-04-04 14:17:00,
2013-04-04 09:18:00,42.5,40.9,29.81,NNW,348,0.0,2.0,94,0.00,,,0.29,Wunderground v.1.15,2013-04-04 14:18:00,
2013-04-04 09:20:00,42.5,40.9,29.81,NNW,342,0.0,2.0,94,0.00,,,0.29,Wunderground v.1.15,2013-04-04 14:20:00,
2013-04-04 09:21:00,42.5,40.9,29.81,NNW,343,0.0,2.0,94,0.00,,,0.29,Wunderground v.1.15,2013-04-04 14:21:00,
2013-04-04 09:22:00,42.5,40.9,29.81,NNE,18,0.0,0.0,94,0.00,,,0.29,Wunderground v.1.15,2013-04-04 14:22:00,
2013-04-04 09:23:00,42.6,41.0,29.81,NNW,342,0.0,0.0,94,0.00,,,0.29,Wunderground v.1.15,2013-04-04 14:23:00,
2013-04-04 09:25:00,42.5,40.9,29.81,ENE,76,0.0,3.0,94,0.00,,,0.29,Wunderground v.1.15,2013-04-04 14:25:00,
2013-04-04 09:28:00,42.6,41.0,29.81,North,360,0.0,3.0,94,0.00,,,0.29,Wunderground v.1.15,2013-04-04 14:28:00,
2013-04-04 09:30:00,42.6,41.0,29.81,NNE,29,0.0,3.0,94,0.00,,,0.29,Wunderground v.1.15,2013-04-04 14:30:00,
2013-04-04 09:33:00,42.7,41.1,29.81,NNW,344,0.0,0.0,94,0.00,,,0.29,Wunderground v.1.15,2013-04-04 14:33:00,
2013-04-04 09:34:00,42.7,41.1,29.81,NNW,344,0.0,0.0,94,0.00,,,0.29,Wunderground v.1.15,2013-04-04 14:34:00,
2013-04-04 09:36:00,42.7,41.1,29.81,NNW,344,0.0,0.0,94,0.00,,,0.29,Wunderground v.1.15,2013-04-04 14:36:00,
2013-04-04 09:38:00,42.8,41.2,29.81,NNW,345,0.0,0.0,94,0.00,,,0.29,Wunderground v.1.15,2013-04-04 14:38:00,
2013-04-04 09:39:00,42.8,41.2,29.81,NNW,345,0.0,0.0,94,0.00,,,0.29,Wunderground v.1.15,2013-04-04 14:39:00,
2013-04-04 09:42:00,42.8,41.2,29.81,East,93,3.0,3.0,94,0.00,,,0.29,Wunderground v.1.15,2013-04-04 14:42:00,
2013-04-04 09:43:00,42.9,41.3,29.81,East,79,0.0,0.0,94,0.00,,,0.29,Wunderground v.1.15,2013-04-04 14:43:00,
2013-04-04 09:44:00,42.9,41.3,29.81,ENE,78,0.0,0.0,94,0.00,,,0.29,Wunderground v.1.15,2013-04-04 14:44:00,
2013-04-04 09:47:00,43.0,41.4,29.81,East,82,0.0,0.0,94,0.00,,,0.29,Wunderground v.1.15,2013-04-04 14:47:00,
2013-04-04 09:48:00,43.0,41.4,29.81,NE,36,0.0,0.0,94,0.00,,,0.29,Wunderground v.1.15,2013-04-04 14:48:00,
2013-04-04 09:50:00,43.1,41.5,29.81,NE,39,0.0,0.0,94,0.00,,,0.29,Wunderground v.1.15,2013-04-04 14:50:00,
2013-04-04 09:53:00,43.2,41.6,29.81,ESE,111,0.0,0.0,94,0.00,,,0.29,Wunderground v.1.15,2013-04-04 14:53:00,
2013-04-04 09:54:00,43.3,41.7,29.81,ESE,110,0.0,0.0,94,0.00,,,0.29,Wunderground v.1.15,2013-04-04 14:54:00,
2013-04-04 09:55:00,43.3,41.7,29.81,ESE,111,0.0,0.0,94,0.00,,,0.29,Wunderground v.1.15,2013-04-04 14:55:00,
2013-04-04 09:58:00,43.4,41.8,29.81,ESE,109,0.0,1.0,94,0.00,,,0.29,Wunderground v.1.15,2013-04-04 14:58:00,
2013-04-04 09:59:00,43.4,41.8,29.81,ESE,104,0.0,1.0,94,0.00,,,0.29,Wunderground v.1.15,2013-04-04 14:59:00,
2013-04-04 10:00:00,43.4,41.8,29.81,ESE,102,0.0,1.0,94,0.00,,,0.29,Wunderground v.1.15,2013-04-04 15:00:00,
2013-04-04 10:04:00,43.4,41.8,29.81,North,350,0.0,0.0,94,0.00,,,0.29,Wunderground v.1.15,2013-04-04 15:04:00,
2013-04-04 10:05:00,43.5,41.9,29.81,North,350,0.0,0.0,94,0.00,,,0.29,Wunderground v.1.15,2013-04-04 15:05:00,
2013-04-04 10:06:00,43.5,41.9,29.81,North,349,0.0,1.0,94,0.00,,,0.29,Wunderground v.1.15,2013-04-04 15:06:00,
2013-04-04 10:09:00,43.6,42.0,29.81,North,349,0.0,1.0,94,0.00,,,0.29,Wunderground v.1.15,2013-04-04 15:09:00,
2013-04-04 10:10:00,43.6,42.0,29.81,North,349,0.0,1.0,94,0.00,,,0.29,Wunderground v.1.15,2013-04-04 15:10:00,
2013-04-04 10:11:00,43.6,42.0,29.81,NNW,340,2.0,2.0,94,0.00,,,0.29,Wunderground v.1.15,2013-04-04 15:11:00,
2013-04-04 10:12:00,43.7,42.1,29.81,North,5,0.0,2.0,94,0.00,,,0.29,Wunderground v.1.15,2013-04-04 15:12:00,
2013-04-04 10:15:00,43.7,42.1,29.81,NNW,334,0.0,0.0,94,0.00,,,0.29,Wunderground v.1.15,2013-04-04 15:15:00,
2013-04-04 10:16:00,43.7,42.1,29.81,NNW,335,1.0,2.0,94,0.00,,,0.29,Wunderground v.1.15,2013-04-04 15:16:00,
2013-04-04 10:18:00,43.7,42.1,29.81,NNW,334,0.0,3.0,94,0.00,,,0.29,Wunderground v.1.15,2013-04-04 15:18:00,
2013-04-04 10:20:00,43.7,42.1,29.81,NNW,338,0.0,4.0,94,0.00,,,0.29,Wunderground v.1.15,2013-04-04 15:20:00,
2013-04-04 10:21:00,43.7,42.1,29.82,NNW,338,0.0,4.0,94,0.00,,,0.29,Wunderground v.1.15,2013-04-04 15:21:00,
2013-04-04 10:22:00,43.7,42.1,29.82,North,350,0.0,4.0,94,0.00,,,0.29,Wunderground v.1.15,2013-04-04 15:22:00,
2013-04-04 10:23:00,43.8,42.2,29.82,East,82,0.0,0.0,94,0.00,,,0.29,Wunderground v.1.15,2013-04-04 15:23:00,
2013-04-04 10:25:00,43.7,42.1,29.82,SE,142,1.0,2.0,94,0.00,,,0.29,Wunderground v.1.15,2013-04-04 15:25:00,
2013-04-04 10:26:00,43.7,42.1,29.82,East,80,0.0,2.0,94,0.00,,,0.29,Wunderground v.1.15,2013-04-04 15:26:00,
2013-04-04 10:27:00,43.7,42.1,29.82,ESE,106,0.0,2.0,94,0.00,,,0.29,Wunderground v.1.15,2013-04-04 15:27:00,
2013-04-04 10:28:00,43.8,42.2,29.82,North,10,0.0,2.0,94,0.00,,,0.29,Wunderground v.1.15,2013-04-04 15:28:00,
2013-04-04 10:30:00,43.8,42.2,29.82,NNW,337,0.0,4.0,94,0.00,,,0.29,Wunderground v.1.15,2013-04-04 15:30:00,
2013-04-04 10:31:00,43.8,42.2,29.82,NNW,337,0.0,4.0,94,0.00,,,0.29,Wunderground v.1.15,2013-04-04 15:31:00,
2013-04-04 10:32:00,43.8,42.2,29.82,NNW,337,0.0,4.0,94,0.00,,,0.29,Wunderground v.1.15,2013-04-04 15:32:00,
2013-04-04 10:33:00,43.8,42.2,29.82,NNW,335,2.0,3.0,94,0.00,,,0.29,Wunderground v.1.15,2013-04-04 15:33:00,
2013-04-04 10:36:00,43.8,42.2,29.82,SSE,153,0.0,3.0,94,0.00,,,0.29,Wunderground v.1.15,2013-04-04 15:36:00,
2013-04-04 10:37:00,43.8,42.2,29.82,NNW,331,2.0,3.0,94,0.00,,,0.29,Wunderground v.1.15,2013-04-04 15:37:00,
2013-04-04 10:39:00,43.9,42.3,29.82,NNW,339,0.0,3.0,94,0.00,,,0.29,Wunderground v.1.15,2013-04-04 15:39:00,
2013-04-04 10:42:00,43.9,42.3,29.82,North,355,0.0,4.0,94,0.00,,,0.29,Wunderground v.1.15,2013-04-04 15:42:00,
2013-04-04 10:45:00,43.9,42.3,29.82,North,355,0.0,1.0,94,0.00,,,0.29,Wunderground v.1.15,2013-04-04 15:45:00,
2013-04-04 10:47:00,43.9,42.3,29.82,NNE,19,0.0,1.0,94,0.00,,,0.29,Wunderground v.1.15,2013-04-04 15:47:00,
2013-04-04 10:48:00,43.9,42.3,29.82,NNE,18,0.0,1.0,94,0.00,,,0.29,Wunderground v.1.15,2013-04-04 15:48:00,
2013-04-04 10:50:00,44.0,42.4,29.82,NNW,336,3.0,3.0,94,0.00,,,0.29,Wunderground v.1.15,2013-04-04 15:50:00,
2013-04-04 10:51:00,44.0,42.4,29.82,NNW,334,1.0,3.0,94,0.00,,,0.29,Wunderground v.1.15,2013-04-04 15:51:00,
2013-04-04 10:53:00,44.0,42.4,29.82,NW,315,0.0,0.0,94,0.00,,,0.29,Wunderground v.1.15,2013-04-04 15:53:00,
2013-04-04 10:55:00,44.0,42.4,29.82,NNW,346,0.0,3.0,94,0.00,,,0.29,Wunderground v.1.15,2013-04-04 15:55:00,
2013-04-04 10:57:00,44.0,42.4,29.82,East,84,0.0,3.0,94,0.00,,,0.29,Wunderground v.1.15,2013-04-04 15:57:00,
2013-04-04 10:58:00,44.0,42.4,29.82,East,99,0.0,3.0,94,0.00,,,0.29,Wunderground v.1.15,2013-04-04 15:58:00,
2013-04-04 11:01:00,44.1,42.5,29.82,East,93,5.0,5.0,94,0.00,,,0.29,Wunderground v.1.15,2013-04-04 16:01:00,
2013-04-04 11:02:00,44.1,42.5,29.82,North,355,4.0,5.0,94,0.00,,,0.29,Wunderground v.1.15,2013-04-04 16:02:00,
2013-04-04 11:04:00,44.0,42.4,29.82,North,360,0.0,4.0,94,0.00,,,0.29,Wunderground v.1.15,2013-04-04 16:04:00,
2013-04-04 11:06:00,44.0,42.4,29.82,NNW,336,0.0,5.0,94,0.00,,,0.29,Wunderground v.1.15,2013-04-04 16:06:00,
2013-04-04 11:08:00,44.1,42.5,29.82,NW,310,0.0,5.0,94,0.00,,,0.29,Wunderground v.1.15,2013-04-04 16:08:00,
2013-04-04 11:09:00,44.1,42.5,29.82,NW,325,2.0,5.0,94,0.00,,,0.29,Wunderground v.1.15,2013-04-04 16:09:00,
2013-04-04 11:11:00,44.2,42.6,29.82,NW,325,0.0,5.0,94,0.00,,,0.29,Wunderground v.1.15,2013-04-04 16:11:00,
2013-04-04 11:12:00,44.2,42.6,29.82,NW,323,1.0,5.0,94,0.00,,,0.29,Wunderground v.1.15,2013-04-04 16:12:00,
2013-04-04 11:13:00,44.2,42.6,29.82,NW,323,0.0,1.0,94,0.00,,,0.29,Wunderground v.1.15,2013-04-04 16:13:00,
2013-04-04 11:15:00,44.2,42.6,29.82,NW,323,0.0,1.0,94,0.00,,,0.29,Wunderground v.1.15,2013-04-04 16:15:00,
2013-04-04 11:17:00,44.2,42.6,29.82,NW,323,0.0,1.0,94,0.00,,,0.29,Wunderground v.1.15,2013-04-04 16:17:00,
2013-04-04 11:20:00,44.2,42.6,29.82,NE,49,0.0,1.0,94,0.00,,,0.29,Wunderground v.1.15,2013-04-04 16:20:00,
2013-04-04 11:23:00,44.3,42.7,29.82,North,355,0.0,1.0,94,0.00,,,0.29,Wunderground v.1.15,2013-04-04 16:23:00,
2013-04-04 11:25:00,44.3,42.7,29.82,NNW,338,0.0,0.0,94,0.00,,,0.29,Wunderground v.1.15,2013-04-04 16:25:00,
2013-04-04 11:28:00,44.4,42.8,29.82,ENE,59,0.0,0.0,94,0.00,,,0.29,Wunderground v.1.15,2013-04-04 16:28:00,
2013-04-04 11:30:00,44.5,42.9,29.82,ENE,60,0.0,0.0,94,0.00,,,0.29,Wunderground v.1.15,2013-04-04 16:30:00,
2013-04-04 11:32:00,44.5,42.9,29.82,NNE,17,0.0,0.0,94,0.00,,,0.29,Wunderground v.1.15,2013-04-04 16:32:00,
2013-04-04 11:33:00,44.5,42.9,29.82,East,91,1.0,1.0,94,0.00,,,0.29,Wunderground v.1.15,2013-04-04 16:33:00,
2013-04-04 11:36:00,44.5,42.9,29.82,East,92,0.0,2.0,94,0.00,,,0.29,Wunderground v.1.15,2013-04-04 16:36:00,
2013-04-04 11:37:00,44.5,42.9,29.82,East,92,0.0,2.0,94,0.00,,,0.29,Wunderground v.1.15,2013-04-04 16:37:00,
2013-04-04 11:38:00,44.5,42.9,29.82,NNW,340,3.0,3.0,94,0.00,,,0.29,Wunderground v.1.15,2013-04-04 16:38:00,
2013-04-04 11:42:00,44.5,42.9,29.82,ENE,57,0.0,4.0,94,0.00,,,0.29,Wunderground v.1.15,2013-04-04 16:42:00,
2013-04-04 11:43:00,44.5,42.9,29.82,North,351,0.0,0.0,94,0.00,,,0.29,Wunderground v.1.15,2013-04-04 16:43:00,
2013-04-04 11:47:00,44.5,42.9,29.82,NNW,329,0.0,4.0,94,0.00,,,0.29,Wunderground v.1.15,2013-04-04 16:47:00,
2013-04-04 11:48:00,44.5,42.9,29.82,WNW,298,0.0,4.0,94,0.00,,,0.29,Wunderground v.1.15,2013-04-04 16:48:00,
2013-04-04 11:53:00,44.6,43.0,29.82,ESE,117,0.0,0.0,94,0.00,,,0.29,Wunderground v.1.15,2013-04-04 16:53:00,
2013-04-04 11:55:00,44.6,43.0,29.82,ESE,112,0.0,0.0,94,0.00,,,0.29,Wunderground v.1.15,2013-04-04 16:55:00,
2013-04-04 11:58:00,44.7,43.1,29.82,ENE,63,0.0,0.0,94,0.00,,,0.29,Wunderground v.1.15,2013-04-04 16:58:00,
2013-04-04 12:01:00,44.7,43.1,29.82,NNW,344,0.0,0.0,94,0.00,,,0.29,Wunderground v.1.15,2013-04-04 17:01:00,
2013-04-04 12:02:00,44.7,43.1,29.82,NNW,330,2.0,2.0,94,0.00,,,0.29,Wunderground v.1.15,2013-04-04 17:02:00,
2013-04-04 12:03:00,44.7,43.1,29.82,NNW,330,0.0,2.0,94,0.00,,,0.29,Wunderground v.1.15,2013-04-04 17:03:00,
2013-04-04 12:06:00,44.6,43.0,29.82,NW,313,0.0,2.0,94,0.00,,,0.29,Wunderground v.1.15,2013-04-04 17:06:00,
2013-04-04 12:07:00,44.6,43.0,29.82,NW,313,0.0,2.0,94,0.00,,,0.29,Wunderground v.1.15,2013-04-04 17:07:00,
2013-04-04 12:09:00,44.6,43.0,29.82,WNW,287,0.0,2.0,94,0.00,,,0.29,Wunderground v.1.15,2013-04-04 17:09:00,
2013-04-04 12:12:00,44.6,43.0,29.81,East,96,0.0,2.0,94,0.00,,,0.29,Wunderground v.1.15,2013-04-04 17:12:00,
2013-04-04 12:13:00,44.6,43.0,29.81,East,96,0.0,0.0,94,0.00,,,0.29,Wunderground v.1.15,2013-04-04 17:13:00,
2013-04-04 12:15:00,44.6,43.0,29.81,East,86,1.0,1.0,94,0.00,,,0.29,Wunderground v.1.15,2013-04-04 17:15:00,
2013-04-04 12:17:00,44.6,43.0,29.81,North,355,0.0,3.0,94,0.00,,,0.29,Wunderground v.1.15,2013-04-04 17:17:00,
2013-04-04 12:19:00,44.6,43.0,29.82,ENE,63,0.0,3.0,94,0.00,,,0.29,Wunderground v.1.15,2013-04-04 17:19:00,
2013-04-04 12:20:00,44.6,43.0,29.82,ENE,63,0.0,3.0,94,0.00,,,0.29,Wunderground v.1.15,2013-04-04 17:20:00,
2013-04-04 12:22:00,44.6,43.0,29.82,NNE,22,0.0,3.0,94,0.00,,,0.29,Wunderground v.1.15,2013-04-04 17:22:00,
2013-04-04 12:24:00,44.7,43.1,29.82,NE,48,0.0,0.0,94,0.00,,,0.29,Wunderground v.1.15,2013-04-04 17:24:00,
2013-04-04 12:26:00,44.6,43.0,29.82,NW,311,0.0,0.0,94,0.00,,,0.29,Wunderground v.1.15,2013-04-04 17:26:00,
2013-04-04 12:27:00,44.7,43.1,29.81,NW,315,2.0,4.0,94,0.00,,,0.29,Wunderground v.1.15,2013-04-04 17:27:00,
2013-04-04 12:30:00,44.6,43.0,29.81,NNW,330,0.0,4.0,94,0.00,,,0.29,Wunderground v.1.15,2013-04-04 17:30:00,
2013-04-04 12:32:00,44.6,43.0,29.81,NNW,330,0.0,4.0,94,0.00,,,0.29,Wunderground v.1.15,2013-04-04 17:32:00,
2013-04-04 12:33:00,44.6,43.0,29.81,NNW,330,0.0,1.0,94,0.00,,,0.29,Wunderground v.1.15,2013-04-04 17:33:00,
2013-04-04 12:35:00,44.7,43.1,29.81,NNW,330,0.0,1.0,94,0.00,,,0.29,Wunderground v.1.15,2013-04-04 17:35:00,
2013-04-04 12:37:00,44.7,43.1,29.81,SE,141,0.0,1.0,94,0.00,,,0.29,Wunderground v.1.15,2013-04-04 17:37:00,
2013-04-04 12:38:00,44.7,43.1,29.81,ENE,58,0.0,1.0,94,0.00,,,0.29,Wunderground v.1.15,2013-04-04 17:38:00,
2013-04-04 12:39:00,44.7,43.1,29.81,ENE,58,0.0,1.0,94,0.00,,,0.29,Wunderground v.1.15,2013-04-04 17:39:00,
2013-04-04 12:41:00,44.7,43.1,29.81,NE,36,0.0,1.0,94,0.00,,,0.29,Wunderground v.1.15,2013-04-04 17:41:00,
2013-04-04 12:42:00,44.7,43.1,29.81,North,355,0.0,1.0,94,0.00,,,0.29,Wunderground v.1.15,2013-04-04 17:42:00,
2013-04-04 12:44:00,44.8,43.2,29.81,North,355,0.0,0.0,94,0.00,,,0.29,Wunderground v.1.15,2013-04-04 17:44:00,
2013-04-04 12:47:00,44.7,43.1,29.80,North,355,0.0,3.0,94,0.00,,,0.29,Wunderground v.1.15,2013-04-04 17:47:00,
2013-04-04 12:48:00,44.7,43.1,29.80,North,355,0.0,3.0,94,0.00,,,0.29,Wunderground v.1.15,2013-04-04 17:48:00,
2013-04-04 12:50:00,44.7,43.1,29.80,North,360,1.0,3.0,94,0.00,,,0.29,Wunderground v.1.15,2013-04-04 17:50:00,
2013-04-04 12:52:00,44.8,43.2,29.79,North,355,0.0,3.0,94,0.00,,,0.29,Wunderground v.1.15,2013-04-04 17:52:00,
2013-04-04 12:53:00,44.8,43.2,29.79,North,355,0.0,0.0,94,0.00,,,0.29,Wunderground v.1.15,2013-04-04 17:53:00,
2013-04-04 12:55:00,44.8,43.2,29.80,North,355,0.0,2.0,94,0.00,,,0.29,Wunderground v.1.15,2013-04-04 17:55:00,
2013-04-04 12:56:00,44.8,43.2,29.80,North,355,0.0,2.0,94,0.00,,,0.29,Wunderground v.1.15,2013-04-04 17:56:00,
2013-04-04 12:59:00,44.8,43.2,29.80,North,11,2.0,5.0,94,0.00,,,0.30,Wunderground v.1.15,2013-04-04 17:59:00,
2013-04-04 13:00:00,44.7,43.1,29.80,North,11,0.0,5.0,94,0.00,,,0.30,Wunderground v.1.15,2013-04-04 18:00:00,
2013-04-04 13:01:00,44.7,43.1,29.79,North,360,0.0,5.0,94,0.00,,,0.30,Wunderground v.1.15,2013-04-04 18:01:00,
2013-04-04 13:05:00,44.7,43.1,29.79,NNW,344,0.0,4.0,94,0.00,,,0.30,Wunderground v.1.15,2013-04-04 18:05:00,
2013-04-04 13:06:00,44.7,43.1,29.79,ENE,58,0.0,4.0,94,0.00,,,0.30,Wunderground v.1.15,2013-04-04 18:06:00,
2013-04-04 13:10:00,44.8,43.2,29.79,NNW,330,1.0,4.0,94,0.00,,,0.30,Wunderground v.1.15,2013-04-04 18:10:00,
2013-04-04 13:12:00,44.9,43.3,29.79,NNE,24,1.0,4.0,94,0.00,,,0.30,Wunderground v.1.15,2013-04-04 18:12:00,
2013-04-04 13:15:00,44.9,43.3,29.79,NNE,26,0.0,2.0,94,0.00,,,0.30,Wunderground v.1.15,2013-04-04 18:15:00,
2013-04-04 13:16:00,44.9,43.3,29.79,NNE,25,0.0,2.0,94,0.00,,,0.30,Wunderground v.1.15,2013-04-04 18:16:00,
2013-04-04 13:17:00,44.9,43.3,29.79,NNE,14,0.0,2.0,94,0.00,,,0.30,Wunderground v.1.15,2013-04-04 18:17:00,
2013-04-04 13:20:00,45.0,43.7,29.78,NNW,336,0.0,3.0,95,0.00,,,0.30,Wunderground v.1.15,2013-04-04 18:20:00,
2013-04-04 13:21:00,45.0,43.7,29.78,NNW,336,0.0,3.0,95,0.00,,,0.30,Wunderground v.1.15,2013-04-04 18:21:00,
2013-04-04 13:22:00,45.0,43.7,29.78,NNW,336,0.0,3.0,95,0.00,,,0.30,Wunderground v.1.15,2013-04-04 18:22:00,
2013-04-04 13:23:00,45.0,43.7,29.78,NNW,336,0.0,0.0,95,0.00,,,0.30,Wunderground v.1.15,2013-04-04 18:23:00,
2013-04-04 13:26:00,45.0,43.7,29.78,NNW,336,0.0,0.0,95,0.00,,,0.31,Wunderground v.1.15,2013-04-04 18:26:00,
2013-04-04 13:27:00,45.1,43.8,29.78,East,88,0.0,0.0,95,0.00,,,0.31,Wunderground v.1.15,2013-04-04 18:27:00,
2013-04-04 13:28:00,45.1,43.8,29.78,ESE,119,0.0,0.0,95,0.00,,,0.31,Wunderground v.1.15,2013-04-04 18:28:00,
2013-04-04 13:32:00,45.1,43.8,29.78,NNW,344,0.0,2.0,95,0.00,,,0.31,Wunderground v.1.15,2013-04-04 18:32:00,
2013-04-04 13:33:00,45.2,43.9,29.78,NNW,344,0.0,0.0,95,0.00,,,0.31,Wunderground v.1.15,2013-04-04 18:33:00,
2013-04-04 13:37:00,45.2,43.6,29.78,NW,321,0.0,3.0,94,0.00,,,0.31,Wunderground v.1.15,2013-04-04 18:37:00,
2013-04-04 13:38:00,45.2,43.9,29.78,NW,322,0.0,3.0,95,0.00,,,0.31,Wunderground v.1.15,2013-04-04 18:38:00,
2013-04-04 13:43:00,45.1,43.8,29.78,NW,325,0.0,0.0,95,0.00,,,0.31,Wunderground v.1.15,2013-04-04 18:43:00,
2013-04-04 13:48:00,45.1,43.8,29.78,North,11,0.0,4.0,95,0.00,,,0.31,Wunderground v.1.15,2013-04-04 18:48:00,
2013-04-04 13:49:00,45.1,43.8,29.78,NNW,342,0.0,4.0,95,0.00,,,0.31,Wunderground v.1.15,2013-04-04 18:49:00,
2013-04-04 13:50:00,45.2,43.9,29.78,NNW,341,0.0,4.0,95,0.00,,,0.31,Wunderground v.1.15,2013-04-04 18:50:00,
2013-04-04 13:53:00,45.2,43.9,29.77,East,98,0.0,0.0,95,0.00,,,0.31,Wunderground v.1.15,2013-04-04 18:53:00,
2013-04-04 13:54:00,45.2,43.9,29.77,East,98,0.0,0.0,95,0.00,,,0.31,Wunderground v.1.15,2013-04-04 18:54:00,
2013-04-04 13:55:00,45.3,43.7,29.77,ENE,70,0.0,2.0,94,0.00,,,0.31,Wunderground v.1.15,2013-04-04 18:55:00,
2013-04-04 13:57:00,45.3,43.7,29.77,NNW,346,3.0,3.0,94,0.00,,,0.31,Wunderground v.1.15,2013-04-04 18:57:00,
2013-04-04 13:58:00,45.3,43.7,29.77,WNW,299,3.0,6.0,94,0.00,,,0.31,Wunderground v.1.15,2013-04-04 18:58:00,
2013-04-04 13:59:00,45.3,43.7,29.77,North,5,0.0,6.0,94,0.00,,,0.31,Wunderground v.1.15,2013-04-04 18:59:00,
2013-04-04 14:00:00,45.3,43.7,29.77,NNE,13,2.0,6.0,94,0.00,,,0.31,Wunderground v.1.15,2013-04-04 19:00:00,
2013-04-04 14:02:00,45.3,43.7,29.77,NW,305,0.0,6.0,94,0.00,,,0.31,Wunderground v.1.15,2013-04-04 19:02:00,
2013-04-04 14:03:00,45.4,43.8,29.77,NW,304,0.0,1.0,94,0.00,,,0.31,Wunderground v.1.15,2013-04-04 19:03:00,
2013-04-04 14:05:00,45.4,43.8,29.77,NW,304,0.0,1.0,94,0.00,,,0.31,Wunderground v.1.15,2013-04-04 19:05:00,
2013-04-04 14:06:00,45.4,43.8,29.77,NW,307,0.0,1.0,94,0.00,,,0.31,Wunderground v.1.15,2013-04-04 19:06:00,
2013-04-04 14:07:00,45.4,43.8,29.77,East,89,0.0,1.0,94,0.00,,,0.31,Wunderground v.1.15,2013-04-04 19:07:00,
2013-04-04 14:08:00,45.4,43.8,29.77,ESE,105,0.0,1.0,94,0.00,,,0.31,Wunderground v.1.15,2013-04-04 19:08:00,
2013-04-04 14:10:00,45.4,43.8,29.77,NW,321,0.0,6.0,94,0.00,,,0.31,Wunderground v.1.15,2013-04-04 19:10:00,
2013-04-04 14:12:00,45.4,43.8,29.77,NNW,333,0.0,6.0,94,0.00,,,0.31,Wunderground v.1.15,2013-04-04 19:12:00,
2013-04-04 14:13:00,45.4,43.8,29.77,North,355,0.0,0.0,94,0.00,,,0.31,Wunderground v.1.15,2013-04-04 19:13:00,
2013-04-04 14:16:00,45.4,43.8,29.77,North,9,0.0,0.0,94,0.00,,,0.31,Wunderground v.1.15,2013-04-04 19:16:00,
2013-04-04 14:17:00,45.4,43.8,29.77,North,9,0.0,0.0,94,0.00,,,0.31,Wunderground v.1.15,2013-04-04 19:17:00,
2013-04-04 14:18:00,45.4,43.8,29.77,North,9,0.0,0.0,94,0.00,,,0.31,Wunderground v.1.15,2013-04-04 19:18:00,
2013-04-04 14:19:00,45.5,43.9,29.77,NNW,345,0.0,0.0,94,0.00,,,0.31,Wunderground v.1.15,2013-04-04 19:19:00,
2013-04-04 14:21:00,45.5,43.9,29.77,North,350,0.0,0.0,94,0.00,,,0.31,Wunderground v.1.15,2013-04-04 19:21:00,
2013-04-04 14:22:00,45.5,43.9,29.77,NNW,333,4.0,4.0,94,0.00,,,0.31,Wunderground v.1.15,2013-04-04 19:22:00,
2013-04-04 14:23:00,45.5,43.9,29.77,NNW,333,0.0,1.0,94,0.00,,,0.31,Wunderground v.1.15,2013-04-04 19:23:00,
2013-04-04 14:25:00,45.6,44.0,29.77,NNW,333,0.0,1.0,94,0.00,,,0.31,Wunderground v.1.15,2013-04-04 19:25:00,
2013-04-04 14:27:00,45.6,44.0,29.77,NE,53,0.0,1.0,94,0.00,,,0.31,Wunderground v.1.15,2013-04-04 19:27:00,
2013-04-04 14:28:00,45.6,44.3,29.77,NE,53,0.0,1.0,95,0.00,,,0.31,Wunderground v.1.15,2013-04-04 19:28:00,
2013-04-04 14:30:00,45.6,44.3,29.77,East,82,0.0,1.0,95,0.00,,,0.31,Wunderground v.1.15,2013-04-04 19:30:00,
2013-04-04 14:32:00,45.6,44.3,29.77,East,83,0.0,1.0,95,0.00,,,0.31,Wunderground v.1.15,2013-04-04 19:32:00,
2013-04-04 14:33:00,45.6,44.3,29.77,East,87,0.0,0.0,95,0.00,,,0.31,Wunderground v.1.15,2013-04-04 19:33:00,
2013-04-04 14:34:00,45.6,44.3,29.77,East,88,0.0,0.0,95,0.00,,,0.31,Wunderground v.1.15,2013-04-04 19:34:00,
2013-04-04 14:36:00,45.7,44.4,29.77,East,88,0.0,0.0,95,0.00,,,0.31,Wunderground v.1.15,2013-04-04 19:36:00,
2013-04-04 14:38:00,45.7,44.4,29.76,ENE,76,0.0,0.0,95,0.00,,,0.31,Wunderground v.1.15,2013-04-04 19:38:00,
2013-04-04 14:39:00,45.8,44.4,29.76,ENE,76,0.0,0.0,95,0.00,,,0.31,Wunderground v.1.15,2013-04-04 19:39:00,
2013-04-04 14:40:00,45.8,44.4,29.76,ENE,75,0.0,0.0,95,0.00,,,0.31,Wunderground v.1.15,2013-04-04 19:40:00,
2013-04-04 14:42:00,45.8,44.4,29.76,NNW,333,2.0,3.0,95,0.00,,,0.31,Wunderground v.1.15,2013-04-04 19:42:00,
2013-04-04 14:43:00,45.8,44.4,29.76,NNW,338,0.0,0.0,95,0.00,,,0.31,Wunderground v.1.15,2013-04-04 19:43:00,
2013-04-04 14:45:00,45.8,44.4,29.76,NW,305,0.0,0.0,95,0.00,,,0.31,Wunderground v.1.15,2013-04-04 19:45:00,
2013-04-04 14:47:00,45.8,44.4,29.76,NW,306,0.0,0.0,95,0.00,,,0.31,Wunderground v.1.15,2013-04-04 19:47:00,
2013-04-04 14:50:00,45.8,44.2,29.76,NW,325,0.0,0.0,94,0.00,,,0.31,Wunderground v.1.15,2013-04-04 19:50:00,
2013-04-04 14:51:00,45.8,44.4,29.76,NW,325,0.0,0.0,95,0.00,,,0.31,Wunderground v.1.15,2013-04-04 19:51:00,
2013-04-04 14:52:00,45.9,44.5,29.76,WNW,300,0.0,0.0,95,0.00,,,0.31,Wunderground v.1.15,2013-04-04 19:52:00,
2013-04-04 14:55:00,45.9,44.3,29.76,WNW,300,0.0,1.0,94,0.00,,,0.31,Wunderground v.1.15,2013-04-04 19:55:00,
2013-04-04 14:56:00,45.9,44.3,29.76,NW,304,0.0,1.0,94,0.00,,,0.31,Wunderground v.1.15,2013-04-04 19:56:00,
2013-04-04 14:57:00,45.9,44.3,29.76,NW,326,0.0,1.0,94,0.00,,,0.31,Wunderground v.1.15,2013-04-04 19:57:00,
2013-04-04 15:00:00,45.9,44.3,29.76,North,360,0.0,1.0,94,0.00,,,0.31,Wunderground v.1.15,2013-04-04 20:00:00,
2013-04-04 15:01:00,45.9,44.3,29.76,North,360,0.0,1.0,94,0.00,,,0.31,Wunderground v.1.15,2013-04-04 20:01:00,
2013-04-04 15:02:00,45.9,44.3,29.76,NNW,338,0.0,1.0,94,0.00,,,0.31,Wunderground v.1.15,2013-04-04 20:02:00,
2013-04-04 15:03:00,46.0,44.4,29.76,NNW,329,0.0,0.0,94,0.00,,,0.31,Wunderground v.1.15,2013-04-04 20:03:00,
2013-04-04 15:06:00,46.0,44.4,29.76,North,355,0.0,3.0,94,0.00,,,0.31,Wunderground v.1.15,2013-04-04 20:06:00,
2013-04-04 15:07:00,46.0,44.4,29.76,North,355,0.0,3.0,94,0.00,,,0.31,Wunderground v.1.15,2013-04-04 20:07:00,
2013-04-04 15:08:00,46.0,44.4,29.76,North,355,0.0,3.0,94,0.00,,,0.31,Wunderground v.1.15,2013-04-04 20:08:00,
2013-04-04 15:12:00,46.1,44.5,29.76,ENE,59,0.0,3.0,94,0.00,,,0.31,Wunderground v.1.15,2013-04-04 20:12:00,
2013-04-04 15:13:00,46.1,44.7,29.75,ENE,59,0.0,0.0,95,0.00,,,0.31,Wunderground v.1.15,2013-04-04 20:13:00,
2013-04-04 15:17:00,46.2,44.8,29.75,East,90,0.0,0.0,95,0.00,,,0.31,Wunderground v.1.15,2013-04-04 20:17:00,
2013-04-04 15:18:00,46.3,44.9,29.75,East,90,0.0,0.0,95,0.00,,,0.31,Wunderground v.1.15,2013-04-04 20:18:00,
2013-04-04 15:22:00,46.4,45.0,29.75,East,101,0.0,2.0,95,0.00,,,0.31,Wunderground v.1.15,2013-04-04 20:22:00,
2013-04-04 15:23:00,46.4,45.0,29.75,East,99,0.0,0.0,95,0.00,,,0.31,Wunderground v.1.15,2013-04-04 20:23:00,
2013-04-04 15:24:00,46.4,45.0,29.75,East,99,0.0,0.0,95,0.00,,,0.31,Wunderground v.1.15,2013-04-04 20:24:00,
2013-04-04 15:27:00,46.4,45.0,29.75,North,351,0.0,3.0,95,0.00,,,0.31,Wunderground v.1.15,2013-04-04 20:27:00,
2013-04-04 15:28:00,46.4,45.0,29.75,NNW,335,0.0,3.0,95,0.00,,,0.31,Wunderground v.1.15,2013-04-04 20:28:00,
2013-04-04 15:29:00,46.4,45.0,29.75,NNW,334,0.0,3.0,95,0.00,,,0.31,Wunderground v.1.15,2013-04-04 20:29:00,
2013-04-04 15:30:00,46.4,45.0,29.75,NNW,343,0.0,3.0,95,0.00,,,0.31,Wunderground v.1.15,2013-04-04 20:30:00,
2013-04-04 15:33:00,46.4,45.0,29.75,North,355,0.0,0.0,95,0.00,,,0.31,Wunderground v.1.15,2013-04-04 20:33:00,
2013-04-04 15:34:00,46.4,45.0,29.75,NNW,342,0.0,0.0,95,0.00,,,0.31,Wunderground v.1.15,2013-04-04 20:34:00,
2013-04-04 15:35:00,46.4,44.8,29.75,NNW,342,0.0,0.0,94,0.00,,,0.31,Wunderground v.1.15,2013-04-04 20:35:00,
2013-04-04 15:38:00,46.5,44.9,29.75,NNW,331,0.0,3.0,94,0.00,,,0.31,Wunderground v.1.15,2013-04-04 20:38:00,
2013-04-04 15:40:00,46.5,44.9,29.75,ENE,57,0.0,3.0,94,0.00,,,0.31,Wunderground v.1.15,2013-04-04 20:40:00,
2013-04-04 15:41:00,46.5,44.9,29.75,ENE,57,0.0,3.0,94,0.00,,,0.31,Wunderground v.1.15,2013-04-04 20:41:00,
2013-04-04 15:43:00,46.6,45.0,29.75,WNW,303,0.0,0.0,94,0.00,,,0.31,Wunderground v.1.15,2013-04-04 20:43:00,
2013-04-04 15:45:00,46.6,45.0,29.75,NW,326,3.0,3.0,94,0.00,,,0.31,Wunderground v.1.15,2013-04-04 20:45:00,
2013-04-04 15:46:00,46.6,45.0,29.75,NNW,333,2.0,3.0,94,0.00,,,0.31,Wunderground v.1.15,2013-04-04 20:46:00,
2013-04-04 15:47:00,46.6,45.0,29.75,East,96,2.0,5.0,94,0.00,,,0.31,Wunderground v.1.15,2013-04-04 20:47:00,
2013-04-04 15:49:00,46.6,45.0,29.75,East,81,2.0,5.0,94,0.00,,,0.31,Wunderground v.1.15,2013-04-04 20:49:00,
2013-04-04 15:50:00,46.5,44.9,29.75,East,82,0.0,5.0,94,0.00,,,0.31,Wunderground v.1.15,2013-04-04 20:50:00,
2013-04-04 15:52:00,46.6,45.0,29.75,East,82,0.0,5.0,94,0.00,,,0.31,Wunderground v.1.15,2013-04-04 20:52:00,
2013-04-04 15:55:00,46.6,45.0,29.75,NNE,25,0.0,1.0,94,0.00,,,0.31,Wunderground v.1.15,2013-04-04 20:55:00,
2013-04-04 15:56:00,46.6,45.0,29.74,North,355,0.0,1.0,94,0.00,,,0.31,Wunderground v.1.15,2013-04-04 20:56:00,
2013-04-04 15:57:00,46.6,45.0,29.75,North,355,0.0,1.0,94,0.00,,,0.31,Wunderground v.1.15,2013-04-04 20:57:00,
2013-04-04 16:00:00,46.7,45.1,29.75,East,101,0.0,3.0,94,0.00,,,0.31,Wunderground v.1.15,2013-04-04 21:00:00,
2013-04-04 16:02:00,46.6,45.0,29.75,North,5,0.0,3.0,94,0.00,,,0.31,Wunderground v.1.15,2013-04-04 21:02:00,
2013-04-04 16:05:00,46.6,45.0,29.75,NNW,338,0.0,0.0,94,0.00,,,0.31,Wunderground v.1.15,2013-04-04 21:05:00,
2013-04-04 16:08:00,46.6,45.0,29.75,NNW,334,0.0,0.0,94,0.00,,,0.31,Wunderground v.1.15,2013-04-04 21:08:00,
2013-04-04 16:09:00,46.6,45.0,29.75,NNW,336,0.0,0.0,94,0.00,,,0.31,Wunderground v.1.15,2013-04-04 21:09:00,
2013-04-04 16:10:00,46.7,45.1,29.75,NNW,336,0.0,0.0,94,0.00,,,0.31,Wunderground v.1.15,2013-04-04 21:10:00,
2013-04-04 16:13:00,46.7,45.1,29.75,NNW,342,0.0,0.0,94,0.00,,,0.31,Wunderground v.1.15,2013-04-04 21:13:00,
2013-04-04 16:15:00,46.7,45.1,29.75,North,5,1.0,2.0,94,0.00,,,0.31,Wunderground v.1.15,2013-04-04 21:15:00,
2013-04-04 16:18:00,46.6,45.0,29.75,NNW,333,0.0,2.0,94,0.00,,,0.31,Wunderground v.1.15,2013-04-04 21:18:00,
2013-04-04 16:19:00,46.7,45.1,29.75,NNW,333,0.0,2.0,94,0.00,,,0.31,Wunderground v.1.15,2013-04-04 21:19:00,
2013-04-04 16:20:00,46.6,45.0,29.75,NNW,333,0.0,2.0,94,0.00,,,0.31,Wunderground v.1.15,2013-04-04 21:20:00,
2013-04-04 16:21:00,46.7,45.1,29.75,NW,321,0.0,2.0,94,0.00,,,0.31,Wunderground v.1.15,2013-04-04 21:21:00,
2013-04-04 16:23:00,46.7,45.1,29.75,North,11,0.0,0.0,94,0.00,,,0.31,Wunderground v.1.15,2013-04-04 21:23:00,
2013-04-04 16:25:00,46.7,45.1,29.75,North,11,0.0,0.0,94,0.00,,,0.31,Wunderground v.1.15,2013-04-04 21:25:00,
2013-04-04 16:26:00,46.7,45.1,29.75,North,11,0.0,0.0,94,0.00,,,0.31,Wunderground v.1.15,2013-04-04 21:26:00,
2013-04-04 16:29:00,46.7,45.1,29.75,NW,313,0.0,3.0,94,0.00,,,0.31,Wunderground v.1.15,2013-04-04 21:29:00,
2013-04-04 16:30:00,46.7,45.1,29.75,NW,313,0.0,3.0,94,0.00,,,0.31,Wunderground v.1.15,2013-04-04 21:30:00,
2013-04-04 16:32:00,46.7,45.1,29.75,NNE,18,0.0,3.0,94,0.00,,,0.31,Wunderground v.1.15,2013-04-04 21:32:00,
2013-04-04 16:34:00,46.7,45.1,29.75,NNE,18,0.0,0.0,94,0.00,,,0.31,Wunderground v.1.15,2013-04-04 21:34:00,
2013-04-04 16:35:00,46.7,45.1,29.75,NNE,18,0.0,0.0,94,0.00,,,0.31,Wunderground v.1.15,2013-04-04 21:35:00,
2013-04-04 16:38:00,46.7,45.1,29.76,NNE,18,0.0,0.0,94,0.00,,,0.31,Wunderground v.1.15,2013-04-04 21:38:00,
2013-04-04 16:40:00,46.7,45.1,29.76,NNE,18,0.0,0.0,94,0.00,,,0.31,Wunderground v.1.15,2013-04-04 21:40:00,
2013-04-04 16:42:00,46.8,45.2,29.75,NNE,18,1.0,2.0,94,0.00,,,0.31,Wunderground v.1.15,2013-04-04 21:42:00,
2013-04-04 16:43:00,46.7,45.3,29.75,NNW,341,0.0,0.0,95,0.00,,,0.31,Wunderground v.1.15,2013-04-04 21:43:00,
2013-04-04 16:45:00,46.7,45.1,29.75,NNW,337,1.0,3.0,94,0.00,,,0.31,Wunderground v.1.15,2013-04-04 21:45:00,
2013-04-04 16:47:00,46.7,45.1,29.76,NNW,338,0.0,3.0,94,0.00,,,0.31,Wunderground v.1.15,2013-04-04 21:47:00,
2013-04-04 16:48:00,46.7,45.1,29.76,NNW,337,0.0,3.0,94,0.00,,,0.31,Wunderground v.1.15,2013-04-04 21:48:00,
2013-04-04 16:49:00,46.7,45.1,29.76,NNW,330,0.0,3.0,94,0.00,,,0.31,Wunderground v.1.15,2013-04-04 21:49:00,
2013-04-04 16:50:00,46.7,45.1,29.76,NNW,330,0.0,3.0,94,0.00,,,0.31,Wunderground v.1.15,2013-04-04 21:50:00,
2013-04-04 16:52:00,46.7,45.1,29.76,North,360,0.0,3.0,94,0.00,,,0.31,Wunderground v.1.15,2013-04-04 21:52:00,
2013-04-04 16:53:00,46.7,45.1,29.76,West,274,2.0,2.0,94,0.00,,,0.31,Wunderground v.1.15,2013-04-04 21:53:00,
2013-04-04 16:55:00,46.7,45.1,29.76,West,275,0.0,2.0,94,0.00,,,0.31,Wunderground v.1.15,2013-04-04 21:55:00,
2013-04-04 16:57:00,46.7,45.1,29.76,West,275,0.0,2.0,94,0.00,,,0.31,Wunderground v.1.15,2013-04-04 21:57:00,
2013-04-04 16:58:00,46.7,45.1,29.76,West,275,0.0,2.0,94,0.00,,,0.31,Wunderground v.1.15,2013-04-04 21:58:00,
2013-04-04 17:00:00,46.7,45.1,29.76,North,349,0.0,3.0,94,0.00,,,0.31,Wunderground v.1.15,2013-04-04 22:00:00,
2013-04-04 17:03:00,46.7,45.1,29.76,NNW,344,0.0,0.0,94,0.00,,,0.31,Wunderground v.1.15,2013-04-04 22:03:00,
2013-04-04 17:05:00,46.7,45.1,29.76,NNW,344,0.0,1.0,94,0.00,,,0.31,Wunderground v.1.15,2013-04-04 22:05:00,
2013-04-04 17:08:00,46.7,45.1,29.76,North,355,0.0,1.0,94,0.00,,,0.31,Wunderground v.1.15,2013-04-04 22:08:00,
2013-04-04 17:09:00,46.7,45.1,29.76,North,355,0.0,1.0,94,0.00,,,0.31,Wunderground v.1.15,2013-04-04 22:09:00,
2013-04-04 17:10:00,46.7,45.1,29.76,North,355,0.0,1.0,94,0.00,,,0.31,Wunderground v.1.15,2013-04-04 22:10:00,
2013-04-04 17:13:00,46.7,45.1,29.76,North,355,0.0,0.0,94,0.00,,,0.31,Wunderground v.1.15,2013-04-04 22:13:00,
2013-04-04 17:14:00,46.7,45.1,29.76,North,355,0.0,0.0,94,0.00,,,0.31,Wunderground v.1.15,2013-04-04 22:14:00,
2013-04-04 17:19:00,46.7,45.1,29.76,North,355,0.0,0.0,94,0.00,,,0.31,Wunderground v.1.15,2013-04-04 22:19:00,
2013-04-04 17:20:00,46.7,45.1,29.76,NW,311,0.0,0.0,94,0.00,,,0.31,Wunderground v.1.15,2013-04-04 22:20:00,
2013-04-04 17:24:00,46.7,45.1,29.76,North,355,1.0,1.0,94,0.00,,,0.31,Wunderground v.1.15,2013-04-04 22:24:00,
2013-04-04 17:25:00,46.7,45.1,29.76,North,355,0.0,2.0,94,0.00,,,0.31,Wunderground v.1.15,2013-04-04 22:25:00,
2013-04-04 17:29:00,46.7,45.1,29.76,North,355,0.0,2.0,94,0.00,,,0.31,Wunderground v.1.15,2013-04-04 22:29:00,
2013-04-04 17:32:00,46.7,45.1,29.76,North,355,0.0,2.0,94,0.00,,,0.31,Wunderground v.1.15,2013-04-04 22:32:00,
2013-04-04 17:35:00,46.7,45.1,29.76,NNW,341,0.0,0.0,94,0.00,,,0.31,Wunderground v.1.15,2013-04-04 22:35:00,
2013-04-04 17:37:00,46.7,45.1,29.76,NNW,342,0.0,0.0,94,0.00,,,0.31,Wunderground v.1.15,2013-04-04 22:37:00,
2013-04-04 17:38:00,46.7,45.3,29.76,NNW,341,0.0,0.0,95,0.00,,,0.31,Wunderground v.1.15,2013-04-04 22:38:00,
2013-04-04 17:42:00,46.7,45.3,29.76,NNW,346,0.0,0.0,95,0.00,,,0.31,Wunderground v.1.15,2013-04-04 22:42:00,
2013-04-04 17:43:00,46.7,45.3,29.76,NNW,345,0.0,0.0,95,0.00,,,0.31,Wunderground v.1.15,2013-04-04 22:43:00,
2013-04-04 17:47:00,46.8,45.4,29.76,NNW,329,0.0,0.0,95,0.00,,,0.31,Wunderground v.1.15,2013-04-04 22:47:00,
2013-04-04 17:48:00,46.8,45.4,29.76,North,351,0.0,0.0,95,0.00,,,0.31,Wunderground v.1.15,2013-04-04 22:48:00,
2013-04-04 17:49:00,46.8,45.4,29.76,North,350,0.0,0.0,95,0.00,,,0.31,Wunderground v.1.15,2013-04-04 22:49:00,
2013-04-04 17:52:00,46.8,45.4,29.76,North,349,0.0,0.0,95,0.00,,,0.31,Wunderground v.1.15,2013-04-04 22:52:00,
2013-04-04 17:53:00,46.8,45.4,29.76,North,349,0.0,0.0,95,0.00,,,0.31,Wunderground v.1.15,2013-04-04 22:53:00,
2013-04-04 17:54:00,46.8,45.4,29.76,North,349,0.0,0.0,95,0.00,,,0.31,Wunderground v.1.15,2013-04-04 22:54:00,
2013-04-04 17:57:00,46.8,45.4,29.76,North,355,0.0,0.0,95,0.00,,,0.31,Wunderground v.1.15,2013-04-04 22:57:00,
2013-04-04 17:59:00,46.8,45.4,29.76,North,355,0.0,0.0,95,0.00,,,0.31,Wunderground v.1.15,2013-04-04 22:59:00,
2013-04-04 18:00:00,46.8,45.4,29.76,North,355,0.0,0.0,95,0.00,,,0.31,Wunderground v.1.15,2013-04-04 23:00:00,
2013-04-04 18:03:00,46.8,45.4,29.76,NNW,343,0.0,0.0,95,0.00,,,0.31,Wunderground v.1.15,2013-04-04 23:03:00,
2013-04-04 18:04:00,46.8,45.4,29.76,North,9,0.0,0.0,95,0.00,,,0.31,Wunderground v.1.15,2013-04-04 23:04:00,
2013-04-04 18:05:00,46.8,45.4,29.76,NNW,327,0.0,0.0,95,0.00,,,0.31,Wunderground v.1.15,2013-04-04 23:05:00,
2013-04-04 18:06:00,46.8,45.4,29.76,NNW,344,0.0,1.0,95,0.00,,,0.31,Wunderground v.1.15,2013-04-04 23:06:00,
2013-04-04 18:08:00,46.8,45.4,29.76,NNE,12,0.0,1.0,95,0.00,,,0.31,Wunderground v.1.15,2013-04-04 23:08:00,
2013-04-04 18:09:00,46.8,45.4,29.76,NNW,342,0.0,1.0,95,0.00,,,0.31,Wunderground v.1.15,2013-04-04 23:09:00,
2013-04-04 18:10:00,46.8,45.4,29.76,NNW,342,0.0,1.0,95,0.00,,,0.31,Wunderground v.1.15,2013-04-04 23:10:00,
2013-04-04 18:12:00,46.8,45.4,29.76,NNW,342,0.0,1.0,95,0.00,,,0.31,Wunderground v.1.15,2013-04-04 23:12:00,
2013-04-04 18:13:00,46.8,45.4,29.76,NNW,333,0.0,0.0,95,0.00,,,0.31,Wunderground v.1.15,2013-04-04 23:13:00,
2013-04-04 18:15:00,46.7,45.3,29.76,NNW,333,0.0,0.0,95,0.00,,,0.31,Wunderground v.1.15,2013-04-04 23:15:00,
2013-04-04 18:17:00,46.7,45.3,29.76,NNW,333,0.0,0.0,95,0.00,,,0.31,Wunderground v.1.15,2013-04-04 23:17:00,
2013-04-04 18:19:00,46.7,45.3,29.76,NNW,333,0.0,0.0,95,0.00,,,0.31,Wunderground v.1.15,2013-04-04 23:19:00,
2013-04-04 18:20:00,46.7,45.3,29.76,NNW,333,0.0,0.0,95,0.00,,,0.31,Wunderground v.1.15,2013-04-04 23:20:00,
2013-04-04 18:24:00,46.5,45.1,29.77,West,264,0.0,0.0,95,0.00,,,0.31,Wunderground v.1.15,2013-04-04 23:24:00,
2013-04-04 18:25:00,46.5,45.1,29.77,West,271,0.0,0.0,95,0.00,,,0.31,Wunderground v.1.15,2013-04-04 23:25:00,
2013-04-04 18:26:00,46.5,45.1,29.77,West,271,0.0,0.0,95,0.00,,,0.31,Wunderground v.1.15,2013-04-04 23:26:00,
2013-04-04 18:29:00,46.4,45.0,29.77,NNW,334,0.0,0.0,95,0.00,,,0.31,Wunderground v.1.15,2013-04-04 23:29:00,
2013-04-04 18:30:00,46.4,45.0,29.77,NNW,334,0.0,0.0,95,0.00,,,0.31,Wunderground v.1.15,2013-04-04 23:30:00,
2013-04-04 18:32:00,46.4,45.0,29.77,NNW,334,0.0,0.0,95,0.00,,,0.31,Wunderground v.1.15,2013-04-04 23:32:00,
2013-04-04 18:34:00,46.4,45.0,29.77,NNW,334,0.0,0.0,95,0.00,,,0.31,Wunderground v.1.15,2013-04-04 23:34:00,
2013-04-04 18:35:00,46.4,45.0,29.77,NNW,334,0.0,0.0,95,0.00,,,0.31,Wunderground v.1.15,2013-04-04 23:35:00,
2013-04-04 18:37:00,46.3,44.9,29.77,NNW,332,0.0,3.0,95,0.00,,,0.31,Wunderground v.1.15,2013-04-04 23:37:00,
2013-04-04 18:40:00,46.3,44.9,29.77,NNW,342,0.0,3.0,95,0.00,,,0.31,Wunderground v.1.15,2013-04-04 23:40:00,
2013-04-04 18:42:00,46.2,44.8,29.77,NW,310,0.0,3.0,95,0.00,,,0.31,Wunderground v.1.15,2013-04-04 23:42:00,
2013-04-04 18:45:00,46.2,44.8,29.77,NW,314,0.0,3.0,95,0.00,,,0.31,Wunderground v.1.15,2013-04-04 23:45:00,
2013-04-04 18:47:00,46.2,44.8,29.77,NW,315,0.0,3.0,95,0.00,,,0.31,Wunderground v.1.15,2013-04-04 23:47:00,
2013-04-04 18:50:00,46.1,44.7,29.77,NW,309,0.0,3.0,95,0.00,,,0.31,Wunderground v.1.15,2013-04-04 23:50:00,
2013-04-04 18:52:00,46.1,44.7,29.77,NW,310,0.0,3.0,95,0.00,,,0.31,Wunderground v.1.15,2013-04-04 23:52:00,
2013-04-04 18:53:00,46.1,44.7,29.77,NW,309,0.0,0.0,95,0.00,,,0.31,Wunderground v.1.15,2013-04-04 23:53:00,
2013-04-04 18:55:00,46.1,44.7,29.77,NW,310,0.0,0.0,95,0.00,,,0.31,Wunderground v.1.15,2013-04-04 23:55:00,
2013-04-04 18:57:00,46.1,44.7,29.77,NW,309,0.0,0.0,95,0.00,,,0.31,Wunderground v.1.15,2013-04-04 23:57:00,
2013-04-04 18:58:00,46.1,44.7,29.77,NW,310,0.0,0.0,95,0.00,,,0.31,Wunderground v.1.15,2013-04-04 23:58:00,
2013-04-04 19:01:00,46.1,44.7,29.77,NW,310,0.0,0.0,95,0.00,,,0.31,Wunderground v.1.15,2013-04-05 00:01:00,
2013-04-04 19:02:00,46.1,44.7,29.77,NW,321,0.0,0.0,95,0.00,,,0.31,Wunderground v.1.15,2013-04-05 00:02:00,
2013-04-04 19:03:00,46.1,44.7,29.77,NW,321,0.0,0.0,95,0.00,,,0.31,Wunderground v.1.15,2013-04-05 00:03:00,
2013-04-04 19:07:00,46.1,44.7,29.77,NW,321,0.0,0.0,95,0.00,,,0.31,Wunderground v.1.15,2013-04-05 00:07:00,
2013-04-04 19:08:00,46.1,44.7,29.77,NW,321,0.0,0.0,95,0.00,,,0.31,Wunderground v.1.15,2013-04-05 00:08:00,
2013-04-04 19:12:00,46.1,44.7,29.78,NW,321,0.0,0.0,95,0.00,,,0.31,Wunderground v.1.15,2013-04-05 00:12:00,
2013-04-04 19:13:00,46.1,44.7,29.78,NW,321,0.0,0.0,95,0.00,,,0.31,Wunderground v.1.15,2013-04-05 00:13:00,
2013-04-04 19:14:00,46.1,44.7,29.78,NW,321,0.0,0.0,95,0.00,,,0.31,Wunderground v.1.15,2013-04-05 00:14:00,
2013-04-04 19:17:00,46.1,44.7,29.78,NW,321,0.0,0.0,95,0.00,,,0.31,Wunderground v.1.15,2013-04-05 00:17:00,
2013-04-04 19:18:00,46.0,44.6,29.78,NW,321,0.0,0.0,95,0.00,,,0.31,Wunderground v.1.15,2013-04-05 00:18:00,
2013-04-04 19:19:00,46.1,44.7,29.78,NW,321,0.0,0.0,95,0.00,,,0.31,Wunderground v.1.15,2013-04-05 00:19:00,
2013-04-04 19:23:00,46.1,44.7,29.78,NW,321,0.0,0.0,95,0.00,,,0.32,Wunderground v.1.15,2013-04-05 00:23:00,
2013-04-04 19:24:00,46.1,44.7,29.77,NW,321,0.0,0.0,95,0.00,,,0.32,Wunderground v.1.15,2013-04-05 00:24:00,
2013-04-04 19:25:00,46.0,44.6,29.77,NW,321,0.0,0.0,95,0.00,,,0.32,Wunderground v.1.15,2013-04-05 00:25:00,
2013-04-04 19:29:00,46.0,44.6,29.78,NNW,331,0.0,0.0,95,0.13,,,0.33,Wunderground v.1.15,2013-04-05 00:29:00,
2013-04-04 19:30:00,46.0,44.6,29.78,North,5,0.0,2.0,95,0.13,,,0.33,Wunderground v.1.15,2013-04-05 00:30:00,
2013-04-04 19:31:00,46.0,44.6,29.78,North,5,0.0,2.0,95,0.13,,,0.33,Wunderground v.1.15,2013-04-05 00:31:00,
2013-04-04 19:34:00,46.0,44.6,29.78,North,360,1.0,1.0,95,0.08,,,0.33,Wunderground v.1.15,2013-04-05 00:34:00,
2013-04-04 19:35:00,46.0,44.6,29.78,North,360,0.0,1.0,95,0.08,,,0.34,Wunderground v.1.15,2013-04-05 00:35:00,
2013-04-04 19:36:00,46.0,44.6,29.78,North,5,0.0,1.0,95,0.08,,,0.34,Wunderground v.1.15,2013-04-05 00:36:00,
2013-04-04 19:39:00,46.0,44.6,29.78,NNW,333,0.0,1.0,95,0.08,,,0.34,Wunderground v.1.15,2013-04-05 00:39:00,
2013-04-04 19:40:00,46.0,44.6,29.78,NNW,333,0.0,1.0,95,0.08,,,0.34,Wunderground v.1.15,2013-04-05 00:40:00,
2013-04-04 19:41:00,46.0,44.6,29.78,NNW,333,0.0,1.0,95,0.08,,,0.34,Wunderground v.1.15,2013-04-05 00:41:00,
2013-04-04 19:45:00,46.0,44.6,29.78,NNW,333,0.0,0.0,95,0.08,,,0.35,Wunderground v.1.15,2013-04-05 00:45:00,
2013-04-04 19:46:00,46.0,44.6,29.78,NNW,329,0.0,1.0,95,0.08,,,0.35,Wunderground v.1.15,2013-04-05 00:46:00,
2013-04-04 19:47:00,46.0,44.6,29.78,NNW,329,0.0,1.0,95,0.08,,,0.35,Wunderground v.1.15,2013-04-05 00:47:00,
2013-04-04 19:50:00,46.0,44.6,29.78,NNW,329,0.0,1.0,95,0.07,,,0.35,Wunderground v.1.15,2013-04-05 00:50:00,
2013-04-04 19:51:00,46.1,44.7,29.78,NNW,329,0.0,1.0,95,0.07,,,0.35,Wunderground v.1.15,2013-04-05 00:51:00,
2013-04-04 19:52:00,46.1,44.7,29.78,NNW,329,0.0,1.0,95,0.06,,,0.35,Wunderground v.1.15,2013-04-05 00:52:00,
2013-04-04 19:55:00,46.1,44.7,29.78,NNW,329,0.0,0.0,95,0.04,,,0.35,Wunderground v.1.15,2013-04-05 00:55:00,
2013-04-04 19:56:00,46.1,44.7,29.78,NNW,329,0.0,0.0,95,0.04,,,0.35,Wunderground v.1.15,2013-04-05 00:56:00,
2013-04-04 19:57:00,46.1,44.7,29.78,NNW,329,0.0,0.0,95,0.04,,,0.35,Wunderground v.1.15,2013-04-05 00:57:00,
2013-04-04 19:59:00,46.1,44.7,29.78,NNW,329,0.0,0.0,95,0.00,,,0.35,Wunderground v.1.15,2013-04-05 00:59:00,
2013-04-04 20:01:00,46.1,44.7,29.78,East,83,0.0,0.0,95,0.00,,,0.36,Wunderground v.1.15,2013-04-05 01:01:00,
2013-04-04 20:02:00,46.0,44.6,29.78,East,83,0.0,0.0,95,0.00,,,0.36,Wunderground v.1.15,2013-04-05 01:02:00,
2013-04-04 20:05:00,46.1,44.7,29.78,SSE,151,0.0,0.0,95,0.00,,,0.36,Wunderground v.1.15,2013-04-05 01:05:00,
2013-04-04 20:07:00,46.1,44.7,29.78,SSE,157,0.0,0.0,95,0.00,,,0.36,Wunderground v.1.15,2013-04-05 01:07:00,
2013-04-04 20:08:00,46.1,44.7,29.78,SSE,157,0.0,0.0,95,0.00,,,0.36,Wunderground v.1.15,2013-04-05 01:08:00,
2013-04-04 20:12:00,46.1,44.7,29.78,SSE,157,0.0,0.0,95,0.00,,,0.36,Wunderground v.1.15,2013-04-05 01:12:00,
2013-04-04 20:13:00,46.1,44.7,29.78,SSE,157,0.0,0.0,95,0.00,,,0.36,Wunderground v.1.15,2013-04-05 01:13:00,
2013-04-04 20:17:00,46.1,44.7,29.78,West,263,0.0,0.0,95,0.00,,,0.36,Wunderground v.1.15,2013-04-05 01:17:00,
2013-04-04 20:18:00,46.1,44.7,29.78,West,264,0.0,0.0,95,0.00,,,0.36,Wunderground v.1.15,2013-04-05 01:18:00,
2013-04-04 20:23:00,46.1,44.7,29.79,West,261,0.0,0.0,95,0.00,,,0.36,Wunderground v.1.15,2013-04-05 01:23:00,
2013-04-04 20:25:00,46.1,44.7,29.79,West,261,0.0,0.0,95,0.00,,,0.36,Wunderground v.1.15,2013-04-05 01:25:00,
2013-04-04 20:28:00,46.1,44.7,29.79,West,261,0.0,0.0,95,0.00,,,0.36,Wunderground v.1.15,2013-04-05 01:28:00,
2013-04-04 20:29:00,46.1,44.7,29.79,West,261,0.0,0.0,95,0.00,,,0.36,Wunderground v.1.15,2013-04-05 01:29:00,
2013-04-04 20:30:00,46.1,44.7,29.79,NNW,338,0.0,0.0,95,0.00,,,0.36,Wunderground v.1.15,2013-04-05 01:30:00,
2013-04-04 20:33:00,46.1,44.7,29.79,NNW,336,0.0,0.0,95,0.00,,,0.36,Wunderground v.1.15,2013-04-05 01:33:00,
2013-04-04 20:34:00,46.1,44.7,29.79,NNW,336,0.0,0.0,95,0.00,,,0.36,Wunderground v.1.15,2013-04-05 01:34:00,
2013-04-04 20:36:00,46.1,44.7,29.79,NNW,336,0.0,0.0,95,0.00,,,0.36,Wunderground v.1.15,2013-04-05 01:36:00,
2013-04-04 20:39:00,46.1,44.7,29.79,NNW,336,0.0,0.0,95,0.00,,,0.37,Wunderground v.1.15,2013-04-05 01:39:00,
2013-04-04 20:40:00,46.1,44.7,29.79,NNW,336,0.0,0.0,95,0.00,,,0.37,Wunderground v.1.15,2013-04-05 01:40:00,
2013-04-04 20:41:00,46.1,44.7,29.80,NNW,336,0.0,0.0,95,0.00,,,0.37,Wunderground v.1.15,2013-04-05 01:41:00,
2013-04-04 20:44:00,46.1,44.7,29.80,NNW,336,0.0,0.0,95,0.00,,,0.37,Wunderground v.1.15,2013-04-05 01:44:00,
2013-04-04 20:45:00,46.1,44.7,29.80,NNW,336,0.0,0.0,95,0.00,,,0.37,Wunderground v.1.15,2013-04-05 01:45:00,
2013-04-04 20:47:00,46.1,44.7,29.80,NW,317,0.0,0.0,95,0.00,,,0.37,Wunderground v.1.15,2013-04-05 01:47:00,
2013-04-04 20:49:00,46.1,44.7,29.80,North,360,0.0,0.0,95,0.00,,,0.37,Wunderground v.1.15,2013-04-05 01:49:00,
2013-04-04 20:50:00,46.1,44.7,29.80,North,360,0.0,0.0,95,0.00,,,0.37,Wunderground v.1.15,2013-04-05 01:50:00,
2013-04-04 20:51:00,46.1,44.7,29.80,North,360,0.0,0.0,95,0.00,,,0.37,Wunderground v.1.15,2013-04-05 01:51:00,
2013-04-04 20:52:00,46.1,44.7,29.80,North,360,0.0,0.0,95,0.00,,,0.37,Wunderground v.1.15,2013-04-05 01:52:00,
2013-04-04 20:55:00,46.1,44.7,29.80,North,360,0.0,0.0,95,0.00,,,0.37,Wunderground v.1.15,2013-04-05 01:55:00,
2013-04-04 20:57:00,46.1,44.7,29.80,North,355,0.0,0.0,95,0.00,,,0.37,Wunderground v.1.15,2013-04-05 01:57:00,
2013-04-04 21:00:00,46.0,44.6,29.80,North,355,0.0,0.0,95,0.00,,,0.37,Wunderground v.1.15,2013-04-05 02:00:00,
2013-04-04 21:02:00,46.1,44.7,29.80,North,355,0.0,0.0,95,0.00,,,0.37,Wunderground v.1.15,2013-04-05 02:02:00,
2013-04-04 21:03:00,46.0,44.6,29.80,North,10,3.0,3.0,95,0.00,,,0.37,Wunderground v.1.15,2013-04-05 02:03:00,
2013-04-04 21:05:00,46.0,44.6,29.80,North,360,0.0,3.0,95,0.00,,,0.37,Wunderground v.1.15,2013-04-05 02:05:00,
2013-04-04 21:06:00,46.0,44.6,29.80,North,5,0.0,3.0,95,0.00,,,0.37,Wunderground v.1.15,2013-04-05 02:06:00,
2013-04-04 21:08:00,46.0,44.6,29.80,NNW,346,3.0,3.0,95,0.00,,,0.37,Wunderground v.1.15,2013-04-05 02:08:00,
2013-04-04 21:10:00,46.0,44.6,29.80,NNW,346,0.0,3.0,95,0.00,,,0.37,Wunderground v.1.15,2013-04-05 02:10:00,
2013-04-04 21:12:00,46.0,44.6,29.80,NNW,347,0.0,3.0,95,0.00,,,0.37,Wunderground v.1.15,2013-04-05 02:12:00,
2013-04-04 21:13:00,46.0,44.6,29.80,NNW,348,0.0,1.0,95,0.00,,,0.37,Wunderground v.1.15,2013-04-05 02:13:00,
2013-04-04 21:17:00,46.0,44.6,29.80,North,355,0.0,1.0,95,0.00,,,0.37,Wunderground v.1.15,2013-04-05 02:17:00,
2013-04-04 21:18:00,46.0,44.6,29.80,North,355,0.0,1.0,95,0.00,,,0.37,Wunderground v.1.15,2013-04-05 02:18:00,
2013-04-04 21:19:00,46.0,44.6,29.81,North,355,0.0,1.0,95,0.00,,,0.37,Wunderground v.1.15,2013-04-05 02:19:00,
2013-04-04 21:23:00,46.0,44.6,29.81,North,355,0.0,0.0,95,0.00,,,0.38,Wunderground v.1.15,2013-04-05 02:23:00,
2013-04-04 21:24:00,46.0,44.6,29.81,North,355,0.0,0.0,95,0.00,,,0.38,Wunderground v.1.15,2013-04-05 02:24:00,
2013-04-04 21:28:00,46.0,44.6,29.81,WNW,298,0.0,3.0,95,0.00,,,0.38,Wunderground v.1.15,2013-04-05 02:28:00,
2013-04-04 21:29:00,46.0,44.6,29.81,NE,39,2.0,3.0,95,0.00,,,0.38,Wunderground v.1.15,2013-04-05 02:29:00,
2013-04-04 21:30:00,46.0,44.6,29.81,NE,38,0.0,3.0,95,0.00,,,0.38,Wunderground v.1.15,2013-04-05 02:30:00,
2013-04-04 21:34:00,46.0,44.6,29.81,North,355,2.0,2.0,95,0.00,,,0.38,Wunderground v.1.15,2013-04-05 02:34:00,
2013-04-04 21:35:00,46.0,44.6,29.81,North,355,0.0,2.0,95,0.00,,,0.38,Wunderground v.1.15,2013-04-05 02:35:00,
2013-04-04 21:36:00,46.0,44.6,29.81,North,355,0.0,2.0,95,0.00,,,0.38,Wunderground v.1.15,2013-04-05 02:36:00,
2013-04-04 21:39:00,46.0,44.6,29.81,North,355,0.0,2.0,95,0.00,,,0.38,Wunderground v.1.15,2013-04-05 02:39:00,
2013-04-04 21:40:00,46.0,44.6,29.81,North,355,0.0,2.0,95,0.00,,,0.38,Wunderground v.1.15,2013-04-05 02:40:00,
2013-04-04 21:41:00,46.0,44.6,29.81,North,355,0.0,2.0,95,0.00,,,0.38,Wunderground v.1.15,2013-04-05 02:41:00,
2013-04-04 21:45:00,46.0,44.6,29.81,North,355,0.0,2.0,95,0.00,,,0.38,Wunderground v.1.15,2013-04-05 02:45:00,
2013-04-04 21:46:00,46.0,44.6,29.81,North,360,0.0,2.0,95,0.00,,,0.38,Wunderground v.1.15,2013-04-05 02:46:00,
2013-04-04 21:50:00,46.0,44.6,29.81,North,360,0.0,2.0,95,0.00,,,0.38,Wunderground v.1.15,2013-04-05 02:50:00,
2013-04-04 21:51:00,46.0,44.6,29.81,North,360,0.0,2.0,95,0.00,,,0.38,Wunderground v.1.15,2013-04-05 02:51:00,
2013-04-04 21:52:00,46.0,44.6,29.81,North,360,0.0,2.0,95,0.00,,,0.38,Wunderground v.1.15,2013-04-05 02:52:00,
2013-04-04 21:55:00,46.0,44.6,29.81,WNW,301,0.0,1.0,95,0.00,,,0.38,Wunderground v.1.15,2013-04-05 02:55:00,
2013-04-04 21:56:00,46.0,44.6,29.81,WNW,301,0.0,1.0,95,0.00,,,0.38,Wunderground v.1.15,2013-04-05 02:56:00,
2013-04-04 21:57:00,46.0,44.6,29.81,WNW,301,0.0,1.0,95,0.00,,,0.38,Wunderground v.1.15,2013-04-05 02:57:00,
2013-04-04 21:58:00,45.9,44.5,29.81,WNW,301,0.0,1.0,95,0.00,,,0.38,Wunderground v.1.15,2013-04-05 02:58:00,
2013-04-04 22:01:00,46.0,44.6,29.81,WNW,301,0.0,1.0,95,0.00,,,0.38,Wunderground v.1.15,2013-04-05 03:01:00,
2013-04-04 22:02:00,46.0,44.6,29.81,NNW,335,0.0,1.0,95,0.00,,,0.38,Wunderground v.1.15,2013-04-05 03:02:00,
2013-04-04 22:03:00,46.0,44.6,29.81,NNW,335,0.0,0.0,95,0.00,,,0.38,Wunderground v.1.15,2013-04-05 03:03:00,
2013-04-04 22:06:00,46.0,44.6,29.81,NNE,17,0.0,0.0,95,0.00,,,0.38,Wunderground v.1.15,2013-04-05 03:06:00,
2013-04-04 22:07:00,46.0,44.6,29.81,NNE,17,0.0,0.0,95,0.00,,,0.39,Wunderground v.1.15,2013-04-05 03:07:00,
2013-04-04 22:08:00,45.9,44.5,29.81,NNE,17,0.0,0.0,95,0.00,,,0.39,Wunderground v.1.15,2013-04-05 03:08:00,
2013-04-04 22:09:00,46.0,44.6,29.81,North,355,0.0,0.0,95,0.00,,,0.39,Wunderground v.1.15,2013-04-05 03:09:00,
2013-04-04 22:11:00,46.0,44.6,29.81,North,355,0.0,0.0,95,0.00,,,0.39,Wunderground v.1.15,2013-04-05 03:11:00,
2013-04-04 22:13:00,46.0,44.6,29.81,NW,312,0.0,0.0,95,0.00,,,0.39,Wunderground v.1.15,2013-04-05 03:13:00,
2013-04-04 22:14:00,45.9,44.5,29.81,NW,312,0.0,0.0,95,0.09,,,0.40,Wunderground v.1.15,2013-04-05 03:14:00,
2013-04-04 22:16:00,46.0,44.6,29.81,NW,312,0.0,0.0,95,0.09,,,0.40,Wunderground v.1.15,2013-04-05 03:16:00,
2013-04-04 22:19:00,45.9,44.5,29.81,WNW,302,0.0,2.0,95,0.09,,,0.40,Wunderground v.1.15,2013-04-05 03:19:00,
2013-04-04 22:22:00,45.9,44.5,29.81,NNW,341,0.0,2.0,95,0.08,,,0.40,Wunderground v.1.15,2013-04-05 03:22:00,
2013-04-04 22:25:00,45.9,44.5,29.81,NNW,340,0.0,0.0,95,0.06,,,0.40,Wunderground v.1.15,2013-04-05 03:25:00,
2013-04-04 22:26:00,45.9,44.5,29.82,NNW,340,0.0,0.0,95,0.05,,,0.40,Wunderground v.1.15,2013-04-05 03:26:00,
2013-04-04 22:28:00,45.9,44.5,29.82,NW,311,0.0,0.0,95,0.04,,,0.40,Wunderground v.1.15,2013-04-05 03:28:00,
2013-04-04 22:30:00,46.0,44.6,29.82,NW,310,0.0,0.0,95,0.04,,,0.40,Wunderground v.1.15,2013-04-05 03:30:00,
2013-04-04 22:32:00,45.9,44.5,29.82,NW,311,0.0,1.0,95,0.00,,,0.40,Wunderground v.1.15,2013-04-05 03:32:00,
2013-04-04 22:33:00,45.9,44.5,29.82,NW,310,0.0,0.0,95,0.00,,,0.40,Wunderground v.1.15,2013-04-05 03:33:00,
2013-04-04 22:35:00,45.9,44.5,29.82,NW,317,0.0,2.0,95,0.00,,,0.40,Wunderground v.1.15,2013-04-05 03:35:00,
2013-04-04 22:37:00,45.9,44.5,29.82,NW,317,0.0,2.0,95,0.00,,,0.40,Wunderground v.1.15,2013-04-05 03:37:00,
2013-04-04 22:38:00,45.9,44.5,29.82,NW,317,0.0,2.0,95,0.00,,,0.40,Wunderground v.1.15,2013-04-05 03:38:00,
2013-04-04 22:40:00,45.9,44.5,29.81,NW,317,0.0,2.0,95,0.00,,,0.40,Wunderground v.1.15,2013-04-05 03:40:00,
2013-04-04 22:41:00,45.9,44.5,29.81,NW,317,0.0,2.0,95,0.00,,,0.40,Wunderground v.1.15,2013-04-05 03:41:00,
2013-04-04 22:43:00,45.9,44.5,29.82,NW,318,0.0,0.0,95,0.00,,,0.40,Wunderground v.1.15,2013-04-05 03:43:00,
2013-04-04 22:46:00,45.9,44.5,29.81,NW,320,0.0,0.0,95,0.00,,,0.40,Wunderground v.1.15,2013-04-05 03:46:00,
2013-04-04 22:48:00,45.9,44.5,29.81,NW,321,0.0,0.0,95,0.00,,,0.40,Wunderground v.1.15,2013-04-05 03:48:00,
2013-04-04 22:49:00,45.9,44.5,29.81,ENE,63,0.0,0.0,95,0.00,,,0.40,Wunderground v.1.15,2013-04-05 03:49:00,
2013-04-04 22:51:00,45.9,44.5,29.81,ENE,63,0.0,0.0,95,0.00,,,0.40,Wunderground v.1.15,2013-04-05 03:51:00,
2013-04-04 22:52:00,45.9,44.5,29.81,ENE,63,0.0,0.0,95,0.00,,,0.40,Wunderground v.1.15,2013-04-05 03:52:00,
2013-04-04 22:53:00,45.9,44.5,29.81,ENE,63,0.0,0.0,95,0.00,,,0.40,Wunderground v.1.15,2013-04-05 03:53:00,
2013-04-04 22:54:00,45.9,44.5,29.81,ENE,63,0.0,0.0,95,0.00,,,0.40,Wunderground v.1.15,2013-04-05 03:54:00,
2013-04-04 22:56:00,45.9,44.5,29.81,ENE,63,0.0,0.0,95,0.00,,,0.40,Wunderground v.1.15,2013-04-05 03:56:00,
2013-04-04 22:57:00,45.9,44.5,29.81,ENE,63,0.0,0.0,95,0.00,,,0.40,Wunderground v.1.15,2013-04-05 03:57:00,
2013-04-04 22:58:00,45.9,44.5,29.81,NNW,338,0.0,0.0,95,0.00,,,0.40,Wunderground v.1.15,2013-04-05 03:58:00,
2013-04-04 22:59:00,45.9,44.5,29.81,NNW,338,0.0,0.0,95,0.00,,,0.40,Wunderground v.1.15,2013-04-05 03:59:00,
2013-04-04 23:00:00,45.9,44.5,29.81,NNW,338,0.0,0.0,95,0.00,,,0.40,Wunderground v.1.15,2013-04-05 04:00:00,
2013-04-04 23:05:00,45.9,44.5,29.81,NNW,338,0.0,0.0,95,0.00,,,0.40,Wunderground v.1.15,2013-04-05 04:05:00,
2013-04-04 23:06:00,45.8,44.4,29.81,NNW,337,0.0,0.0,95,0.00,,,0.40,Wunderground v.1.15,2013-04-05 04:06:00,
2013-04-04 23:10:00,45.8,44.4,29.81,NNW,337,0.0,0.0,95,0.00,,,0.40,Wunderground v.1.15,2013-04-05 04:10:00,
2013-04-04 23:11:00,45.8,44.4,29.81,NNW,338,0.0,0.0,95,0.00,,,0.40,Wunderground v.1.15,2013-04-05 04:11:00,
2013-04-04 23:17:00,45.8,44.4,29.81,NNW,337,0.0,0.0,95,0.00,,,0.41,Wunderground v.1.15,2013-04-05 04:17:00,
2013-04-04 23:22:00,45.8,44.4,29.82,NNW,338,0.0,0.0,95,0.00,,,0.41,Wunderground v.1.15,2013-04-05 04:22:00,
2013-04-04 23:27:00,45.7,44.4,29.82,NNW,338,0.0,0.0,95,0.00,,,0.41,Wunderground v.1.15,2013-04-05 04:27:00,
2013-04-04 23:28:00,45.7,44.4,29.82,NNW,338,0.0,0.0,95,0.00,,,0.41,Wunderground v.1.15,2013-04-05 04:28:00,
2013-04-04 23:33:00,45.6,44.3,29.82,NNW,338,0.0,0.0,95,0.00,,,0.41,Wunderground v.1.15,2013-04-05 04:33:00,
2013-04-04 23:38:00,45.6,44.3,29.82,NNW,338,0.0,0.0,95,0.00,,,0.41,Wunderground v.1.15,2013-04-05 04:38:00,
2013-04-04 23:43:00,45.6,44.3,29.82,NNW,338,0.0,0.0,95,0.00,,,0.41,Wunderground v.1.15,2013-04-05 04:43:00,
2013-04-04 23:44:00,45.6,44.3,29.82,NNW,338,0.0,0.0,95,0.00,,,0.41,Wunderground v.1.15,2013-04-05 04:44:00,
2013-04-04 23:45:00,45.6,44.3,29.82,NNW,338,0.0,0.0,95,0.00,,,0.41,Wunderground v.1.15,2013-04-05 04:45:00,
2013-04-04 23:48:00,45.6,44.3,29.82,NNW,338,0.0,0.0,95,0.00,,,0.41,Wunderground v.1.15,2013-04-05 04:48:00,
2013-04-04 23:49:00,45.6,44.3,29.82,NNW,337,0.0,0.0,95,0.00,,,0.41,Wunderground v.1.15,2013-04-05 04:49:00,
2013-04-04 23:50:00,45.6,44.3,29.82,NNW,338,0.0,0.0,95,0.00,,,0.41,Wunderground v.1.15,2013-04-05 04:50:00,
2013-04-04 23:55:00,45.6,44.3,29.82,NNW,338,0.0,0.0,95,0.00,,,0.41,Wunderground v.1.15,2013-04-05 04:55:00,
2013-04-04 23:57:00,45.6,44.3,29.82,NNW,337,0.0,0.0,95,0.00,,,0.41,Wunderground v.1.15,2013-04-05 04:57:00,